Wetterdaten: Dienstag, 15.10.2013
Datum Zeit Temp. Aussen +5cm Feuchte Auss Luftdruck Regen Sonnenschein Regendauer UV Solar Windben
15.10.2013 00:00 11,2 C 10,0 C 96 % 1008,9 hPa 0,0 l/m 0 min 0 min 0,0 UV-I 0 W/m 15,4 km/h (3 Bft)
15.10.2013 00:02 11,3 C 10,0 C 96 % 1008,9 hPa 0,0 l/m 0 min 0 min 0,0 UV-I 0 W/m 7,7 km/h (2 Bft)
15.10.2013 00:06 11,3 C 10,0 C 96 % 1008,9 hPa 0,0 l/m 0 min 0 min 0,0 UV-I 0 W/m 10,3 km/h (2 Bft)
15.10.2013 00:08 11,3 C 10,0 C 96 % 1008,8 hPa 0,0 l/m 0 min 0 min 0,0 UV-I 0 W/m 2,6 km/h (1 Bft)
15.10.2013 00:10 11,3 C 10,0 C 96 % 1008,8 hPa 0,0 l/m 0 min 0 min 0,0 UV-I 0 W/m 7,7 km/h (2 Bft)
15.10.2013 00:12 11,3 C 10,0 C 96 % 1008,8 hPa 0,0 l/m 0 min 2 min 0,0 UV-I 0 W/m 5,1 km/h (1 Bft)
15.10.2013 00:14 11,3 C 10,0 C 96 % 1008,8 hPa 0,0 l/m 0 min 0 min 0,0 UV-I 0 W/m 12,9 km/h (3 Bft)
15.10.2013 00:16 11,3 C 10,0 C 96 % 1008,8 hPa 0,0 l/m 0 min 0 min 0,0 UV-I 0 W/m 18,0 km/h (3 Bft)
15.10.2013 00:18 11,3 C 10,0 C 96 % 1008,8 hPa 0,0 l/m 0 min 2 min 0,0 UV-I 0 W/m 10,3 km/h (2 Bft)
15.10.2013 00:20 11,3 C 10,0 C 96 % 1008,8 hPa 0,0 l/m 0 min 2 min 0,0 UV-I 0 W/m 10,3 km/h (2 Bft)
15.10.2013 00:22 11,3 C 10,0 C 96 % 1008,9 hPa 0,0 l/m 0 min 2 min 0,0 UV-I 0 W/m 2,6 km/h (1 Bft)
15.10.2013 00:24 11,3 C 10,0 C 96 % 1008,8 hPa 0,0 l/m 0 min 2 min 0,0 UV-I 0 W/m 0,0 km/h (0 Bft)
15.10.2013 00:26 11,3 C 10,0 C 96 % 1008,8 hPa 0,0 l/m 0 min 2 min 0,0 UV-I 0 W/m 7,7 km/h (2 Bft)
15.10.2013 00:28 11,3 C 10,0 C 96 % 1008,6 hPa 0,2 l/m 0 min 2 min 0,0 UV-I 0 W/m 10,3 km/h (2 Bft)
15.10.2013 00:30 11,3 C 10,0 C 96 % 1008,7 hPa 0,0 l/m 0 min 2 min 0,0 UV-I 0 W/m 12,9 km/h (3 Bft)
15.10.2013 00:32 11,3 C 10,0 C 96 % 1008,5 hPa 0,0 l/m 0 min 2 min 0,0 UV-I 0 W/m 12,9 km/h (3 Bft)
15.10.2013 00:34 11,3 C 10,0 C 96 % 1008,5 hPa 0,0 l/m 0 min 2 min 0,0 UV-I 0 W/m 10,3 km/h (2 Bft)
15.10.2013 00:36 11,2 C 10,0 C 96 % 1008,5 hPa 0,0 l/m 0 min 2 min 0,0 UV-I 0 W/m 2,6 km/h (1 Bft)
15.10.2013 00:38 11,2 C 10,0 C 96 % 1008,5 hPa 0,0 l/m 0 min 2 min 0,0 UV-I 0 W/m 7,7 km/h (2 Bft)
15.10.2013 00:40 11,2 C 9,4 C 97 % 1008,3 hPa 0,0 l/m 0 min 0 min 0,0 UV-I 0 W/m 10,3 km/h (2 Bft)
15.10.2013 00:42 11,2 C 9,4 C 97 % 1008,4 hPa 0,0 l/m 0 min 0 min 0,0 UV-I 0 W/m 2,6 km/h (1 Bft)
15.10.2013 00:44 11,2 C 9,4 C 97 % 1008,4 hPa 0,0 l/m 0 min 2 min 0,0 UV-I 0 W/m 5,1 km/h (1 Bft)
15.10.2013 00:46 11,1 C 9,4 C 97 % 1008,3 hPa 0,0 l/m 0 min 2 min 0,0 UV-I 0 W/m 2,6 km/h (1 Bft)
15.10.2013 00:48 11,1 C 9,4 C 97 % 1008,2 hPa 0,0 l/m 0 min 2 min 0,0 UV-I 0 W/m 7,7 km/h (2 Bft)
15.10.2013 00:50 11,1 C 9,4 C 97 % 1008,2 hPa 0,0 l/m 0 min 2 min 0,0 UV-I 0 W/m 0,0 km/h (0 Bft)
15.10.2013 00:52 11,1 C 9,4 C 97 % 1008,2 hPa 0,0 l/m 0 min 2 min 0,0 UV-I 0 W/m 0,0 km/h (0 Bft)
15.10.2013 00:54 11,1 C 9,4 C 97 % 1008,3 hPa 0,0 l/m 0 min 0 min 0,0 UV-I 0 W/m 2,6 km/h (1 Bft)
15.10.2013 00:56 11,0 C 9,4 C 97 % 1008,3 hPa 0,0 l/m 0 min 2 min 0,0 UV-I 0 W/m 0,0 km/h (0 Bft)
15.10.2013 00:58 11,0 C 9,4 C 96 % 1008,3 hPa 0,0 l/m 0 min 0 min 0,0 UV-I 0 W/m 0,0 km/h (0 Bft)
15.10.2013 01:00 11,0 C 9,4 C 96 % 1008,3 hPa 0,0 l/m 0 min 2 min 0,0 UV-I 0 W/m 0,0 km/h (0 Bft)
15.10.2013 01:02 11,0 C 9,4 C 96 % 1008,4 hPa 0,0 l/m 0 min 2 min 0,0 UV-I 0 W/m 0,0 km/h (0 Bft)
15.10.2013 01:06 11,0 C 9,4 C 97 % 1008,6 hPa 0,0 l/m 0 min 2 min 0,0 UV-I 0 W/m 0,0 km/h (0 Bft)
15.10.2013 01:08 11,0 C 9,4 C 97 % 1008,5 hPa 0,0 l/m 0 min 2 min 0,0 UV-I 0 W/m 0,0 km/h (0 Bft)
15.10.2013 01:10 11,0 C 9,4 C 97 % 1008,4 hPa 0,0 l/m 0 min 2 min 0,0 UV-I 0 W/m 10,3 km/h (2 Bft)
15.10.2013 01:12 10,9 C 9,4 C 97 % 1008,4 hPa 0,0 l/m 0 min 2 min 0,0 UV-I 0 W/m 0,0 km/h (0 Bft)
15.10.2013 01:14 11,0 C 9,4 C 97 % 1008,5 hPa 0,0 l/m 0 min 2 min 0,0 UV-I 0 W/m 0,0 km/h (0 Bft)
15.10.2013 01:16 10,9 C 9,4 C 97 % 1008,8 hPa 0,0 l/m 0 min 2 min 0,0 UV-I 0 W/m 12,9 km/h (3 Bft)
15.10.2013 01:18 10,9 C 9,4 C 97 % 1008,7 hPa 0,0 l/m 0 min 0 min 0,0 UV-I 0 W/m 7,7 km/h (2 Bft)
15.10.2013 01:20 10,9 C 9,4 C 97 % 1008,8 hPa 0,0 l/m 0 min 0 min 0,0 UV-I 0 W/m 5,1 km/h (1 Bft)
15.10.2013 01:22 10,9 C 9,4 C 97 % 1008,6 hPa 0,0 l/m 0 min 0 min 0,0 UV-I 0 W/m 10,3 km/h (2 Bft)
15.10.2013 01:24 10,9 C 9,4 C 97 % 1008,4 hPa 0,0 l/m 0 min 0 min 0,0 UV-I 0 W/m 0,0 km/h (0 Bft)
15.10.2013 01:26 10,9 C 9,4 C 97 % 1008,3 hPa 0,0 l/m 0 min 0 min 0,0 UV-I 0 W/m 7,7 km/h (2 Bft)
15.10.2013 01:28 10,8 C 9,4 C 97 % 1008,3 hPa 0,0 l/m 0 min 0 min 0,0 UV-I 0 W/m 7,7 km/h (2 Bft)
15.10.2013 01:30 10,8 C 9,4 C 97 % 1008,2 hPa 0,0 l/m 0 min 0 min 0,0 UV-I 0 W/m 0,0 km/h (0 Bft)
15.10.2013 01:32 10,8 C 9,4 C 97 % 1008,2 hPa 0,0 l/m 0 min 0 min 0,0 UV-I 0 W/m 0,0 km/h (0 Bft)
15.10.2013 01:34 10,8 C 8,9 C 97 % 1008,2 hPa 0,0 l/m 0 min 0 min 0,0 UV-I 0 W/m 0,0 km/h (0 Bft)
15.10.2013 01:36 10,7 C 8,9 C 97 % 1008,3 hPa 0,0 l/m 0 min 0 min 0,0 UV-I 0 W/m 0,0 km/h (0 Bft)
15.10.2013 01:38 10,7 C 8,9 C 97 % 1008,3 hPa 0,0 l/m 0 min 0 min 0,0 UV-I 0 W/m 0,0 km/h (0 Bft)
15.10.2013 01:40 10,7 C 9,4 C 97 % 1008,4 hPa 0,0 l/m 0 min 0 min 0,0 UV-I 0 W/m 0,0 km/h (0 Bft)
15.10.2013 01:42 10,7 C 9,4 C 96 % 1008,4 hPa 0,0 l/m 0 min 0 min 0,0 UV-I 0 W/m 5,1 km/h (1 Bft)
15.10.2013 01:44 10,7 C 9,4 C 96 % 1008,4 hPa 0,0 l/m 0 min 0 min 0,0 UV-I 0 W/m 0,0 km/h (0 Bft)
15.10.2013 01:46 10,7 C 9,4 C 97 % 1008,5 hPa 0,0 l/m 0 min 0 min 0,0 UV-I 0 W/m 0,0 km/h (0 Bft)
15.10.2013 01:48 10,7 C 9,4 C 97 % 1008,4 hPa 0,0 l/m 0 min 0 min 0,0 UV-I 0 W/m 0,0 km/h (0 Bft)
15.10.2013 01:50 10,6 C 9,4 C 97 % 1008,5 hPa 0,0 l/m 0 min 0 min 0,0 UV-I 0 W/m 5,1 km/h (1 Bft)
15.10.2013 01:52 10,6 C 9,4 C 97 % 1008,6 hPa 0,0 l/m 0 min 0 min 0,0 UV-I 0 W/m 2,6 km/h (1 Bft)
15.10.2013 01:54 10,6 C 9,4 C 97 % 1008,6 hPa 0,0 l/m 0 min 0 min 0,0 UV-I 0 W/m 0,0 km/h (0 Bft)
15.10.2013 01:56 10,6 C 9,4 C 97 % 1008,6 hPa 0,0 l/m 0 min 0 min 0,0 UV-I 0 W/m 0,0 km/h (0 Bft)
15.10.2013 01:58 10,6 C 9,4 C 97 % 1008,7 hPa 0,0 l/m 0 min 0 min 0,0 UV-I 0 W/m 0,0 km/h (0 Bft)
15.10.2013 02:00 10,6 C 9,4 C 97 % 1008,6 hPa 0,0 l/m 0 min 0 min 0,0 UV-I 0 W/m 0,0 km/h (0 Bft)
15.10.2013 02:02 10,6 C 8,9 C 97 % 1008,5 hPa 0,0 l/m 0 min 0 min 0,0 UV-I 0 W/m 0,0 km/h (0 Bft)
15.10.2013 02:06 10,5 C 8,9 C 97 % 1008,6 hPa 0,0 l/m 0 min 0 min 0,0 UV-I 0 W/m 0,0 km/h (0 Bft)
15.10.2013 02:08 10,5 C 8,9 C 97 % 1008,5 hPa 0,0 l/m 0 min 0 min 0,0 UV-I 0 W/m 0,0 km/h (0 Bft)
15.10.2013 02:10 10,5 C 8,9 C 97 % 1008,6 hPa 0,0 l/m 0 min 0 min 0,0 UV-I 0 W/m 7,7 km/h (2 Bft)
15.10.2013 02:12 10,5 C 9,4 C 97 % 1008,7 hPa 0,0 l/m 0 min 0 min 0,0 UV-I 0 W/m 0,0 km/h (0 Bft)
15.10.2013 02:14 10,5 C 9,4 C 97 % 1008,8 hPa 0,0 l/m 0 min 0 min 0,0 UV-I 0 W/m 5,1 km/h (1 Bft)
15.10.2013 02:16 10,5 C 8,9 C 97 % 1008,8 hPa 0,0 l/m 0 min 0 min 0,0 UV-I 0 W/m 2,6 km/h (1 Bft)
15.10.2013 02:18 10,5 C 8,9 C 97 % 1008,7 hPa 0,0 l/m 0 min 0 min 0,0 UV-I 0 W/m 0,0 km/h (0 Bft)
15.10.2013 02:20 10,4 C 8,9 C 97 % 1008,7 hPa 0,0 l/m 0 min 0 min 0,0 UV-I 0 W/m 0,0 km/h (0 Bft)
15.10.2013 02:22 10,4 C 8,9 C 97 % 1008,8 hPa 0,0 l/m 0 min 0 min 0,0 UV-I 0 W/m 0,0 km/h (0 Bft)
15.10.2013 02:24 10,4 C 8,9 C 97 % 1008,8 hPa 0,0 l/m 0 min 0 min 0,0 UV-I 0 W/m 5,1 km/h (1 Bft)
15.10.2013 02:26 10,4 C 8,9 C 97 % 1008,8 hPa 0,0 l/m 0 min 0 min 0,0 UV-I 0 W/m 0,0 km/h (0 Bft)
15.10.2013 02:28 10,4 C 8,9 C 97 % 1008,7 hPa 0,0 l/m 0 min 0 min 0,0 UV-I 0 W/m 0,0 km/h (0 Bft)
15.10.2013 02:30 10,4 C 8,9 C 97 % 1008,7 hPa 0,0 l/m 0 min 0 min 0,0 UV-I 0 W/m 0,0 km/h (0 Bft)
15.10.2013 02:32 10,3 C 8,9 C 97 % 1008,7 hPa 0,0 l/m 0 min 0 min 0,0 UV-I 0 W/m 2,6 km/h (1 Bft)
15.10.2013 02:34 10,3 C 8,9 C 97 % 1008,6 hPa 0,0 l/m 0 min 0 min 0,0 UV-I 0 W/m 0,0 km/h (0 Bft)
15.10.2013 02:36 10,3 C 8,9 C 97 % 1008,6 hPa 0,0 l/m 0 min 0 min 0,0 UV-I 0 W/m 0,0 km/h (0 Bft)
15.10.2013 02:38 10,2 C 8,9 C 97 % 1008,6 hPa 0,0 l/m 0 min 0 min 0,0 UV-I 0 W/m 5,1 km/h (1 Bft)
15.10.2013 02:40 10,2 C 8,9 C 97 % 1008,6 hPa 0,0 l/m 0 min 0 min 0,0 UV-I 0 W/m 7,7 km/h (2 Bft)
15.10.2013 02:42 10,1 C 8,3 C 97 % 1008,7 hPa 0,0 l/m 0 min 0 min 0,0 UV-I 0 W/m 0,0 km/h (0 Bft)
15.10.2013 02:44 10,1 C 8,3 C 97 % 1008,5 hPa 0,0 l/m 0 min 0 min 0,0 UV-I 0 W/m 5,1 km/h (1 Bft)
15.10.2013 02:46 10,0 C 8,3 C 97 % 1008,6 hPa 0,0 l/m 0 min 0 min 0,0 UV-I 0 W/m 0,0 km/h (0 Bft)
15.10.2013 02:48 9,9 C 8,3 C 96 % 1008,5 hPa 0,0 l/m 0 min 0 min 0,0 UV-I 0 W/m 0,0 km/h (0 Bft)
15.10.2013 02:50 9,9 C 8,3 C 96 % 1008,5 hPa 0,0 l/m 0 min 0 min 0,0 UV-I 0 W/m 0,0 km/h (0 Bft)
15.10.2013 02:52 9,9 C 8,3 C 96 % 1008,5 hPa 0,0 l/m 0 min 0 min 0,0 UV-I 0 W/m 2,6 km/h (1 Bft)
15.10.2013 02:54 9,9 C 8,3 C 96 % 1008,5 hPa 0,0 l/m 0 min 0 min 0,0 UV-I 0 W/m 0,0 km/h (0 Bft)
15.10.2013 02:56 9,8 C 8,3 C 96 % 1008,6 hPa 0,0 l/m 0 min 0 min 0,0 UV-I 0 W/m 0,0 km/h (0 Bft)
15.10.2013 02:58 9,8 C 7,8 C 96 % 1008,6 hPa 0,0 l/m 0 min 0 min 0,0 UV-I 0 W/m 0,0 km/h (0 Bft)
15.10.2013 03:00 9,8 C 7,8 C 96 % 1008,6 hPa 0,0 l/m 0 min 0 min 0,0 UV-I 0 W/m 0,0 km/h (0 Bft)
15.10.2013 03:02 9,7 C 7,8 C 96 % 1008,6 hPa 0,0 l/m 0 min 0 min 0,0 UV-I 0 W/m 0,0 km/h (0 Bft)
15.10.2013 03:06 9,6 C 7,8 C 96 % 1008,5 hPa 0,0 l/m 0 min 0 min 0,0 UV-I 0 W/m 2,6 km/h (1 Bft)
15.10.2013 03:08 9,6 C 7,8 C 96 % 1008,5 hPa 0,0 l/m 0 min 0 min 0,0 UV-I 0 W/m 0,0 km/h (0 Bft)
15.10.2013 03:10 9,6 C 7,8 C 96 % 1008,5 hPa 0,0 l/m 0 min 0 min 0,0 UV-I 0 W/m 2,6 km/h (1 Bft)
15.10.2013 03:12 9,5 C 7,8 C 96 % 1008,5 hPa 0,0 l/m 0 min 0 min 0,0 UV-I 0 W/m 0,0 km/h (0 Bft)
15.10.2013 03:14 9,4 C 7,8 C 96 % 1008,4 hPa 0,0 l/m 0 min 0 min 0,0 UV-I 0 W/m 2,6 km/h (1 Bft)
15.10.2013 03:16 9,4 C 7,8 C 96 % 1008,4 hPa 0,0 l/m 0 min 0 min 0,0 UV-I 0 W/m 2,6 km/h (1 Bft)
15.10.2013 03:18 9,4 C 7,8 C 96 % 1008,4 hPa 0,0 l/m 0 min 0 min 0,0 UV-I 0 W/m 2,6 km/h (1 Bft)
15.10.2013 03:20 9,4 C 7,8 C 96 % 1008,3 hPa 0,0 l/m 0 min 0 min 0,0 UV-I 0 W/m 0,0 km/h (0 Bft)
15.10.2013 03:22 9,4 C 7,8 C 96 % 1008,3 hPa 0,0 l/m 0 min 0 min 0,0 UV-I 0 W/m 0,0 km/h (0 Bft)
15.10.2013 03:24 9,4 C 7,8 C 96 % 1008,3 hPa 0,0 l/m 0 min 0 min 0,0 UV-I 0 W/m 0,0 km/h (0 Bft)
15.10.2013 03:26 9,3 C 7,8 C 96 % 1008,3 hPa 0,0 l/m 0 min 0 min 0,0 UV-I 0 W/m 0,0 km/h (0 Bft)
15.10.2013 03:28 9,3 C 7,2 C 96 % 1008,2 hPa 0,0 l/m 0 min 0 min 0,0 UV-I 0 W/m 0,0 km/h (0 Bft)
15.10.2013 03:30 9,2 C 7,8 C 96 % 1008,3 hPa 0,0 l/m 0 min 0 min 0,0 UV-I 0 W/m 2,6 km/h (1 Bft)
15.10.2013 03:32 9,2 C 7,8 C 96 % 1008,2 hPa 0,0 l/m 0 min 0 min 0,0 UV-I 0 W/m 0,0 km/h (0 Bft)
15.10.2013 03:34 9,2 C 7,8 C 96 % 1008,3 hPa 0,0 l/m 0 min 0 min 0,0 UV-I 0 W/m 0,0 km/h (0 Bft)
15.10.2013 03:36 9,2 C 7,8 C 96 % 1008,3 hPa 0,0 l/m 0 min 0 min 0,0 UV-I 0 W/m 0,0 km/h (0 Bft)
15.10.2013 03:38 9,2 C 7,8 C 96 % 1008,3 hPa 0,0 l/m 0 min 0 min 0,0 UV-I 0 W/m 0,0 km/h (0 Bft)
15.10.2013 03:40 9,2 C 7,8 C 96 % 1008,2 hPa 0,0 l/m 0 min 0 min 0,0 UV-I 0 W/m 2,6 km/h (1 Bft)
15.10.2013 03:42 9,2 C 7,8 C 96 % 1008,2 hPa 0,0 l/m 0 min 0 min 0,0 UV-I 0 W/m 10,3 km/h (2 Bft)
15.10.2013 03:44 9,2 C 7,8 C 96 % 1008,2 hPa 0,0 l/m 0 min 0 min 0,0 UV-I 0 W/m 5,1 km/h (1 Bft)
15.10.2013 03:46 9,3 C 7,8 C 96 % 1008,2 hPa 0,0 l/m 0 min 0 min 0,0 UV-I 0 W/m 0,0 km/h (0 Bft)
15.10.2013 03:48 9,3 C 7,8 C 96 % 1008,2 hPa 0,0 l/m 0 min 0 min 0,0 UV-I 0 W/m 10,3 km/h (2 Bft)
15.10.2013 03:50 9,3 C 7,8 C 96 % 1008,3 hPa 0,0 l/m 0 min 0 min 0,0 UV-I 0 W/m 2,6 km/h (1 Bft)
15.10.2013 03:52 9,3 C 7,8 C 96 % 1008,3 hPa 0,0 l/m 0 min 0 min 0,0 UV-I 0 W/m 7,7 km/h (2 Bft)
15.10.2013 03:54 9,3 C 7,8 C 96 % 1008,3 hPa 0,0 l/m 0 min 0 min 0,0 UV-I 0 W/m 0,0 km/h (0 Bft)
15.10.2013 03:56 9,3 C 7,8 C 96 % 1008,2 hPa 0,0 l/m 0 min 0 min 0,0 UV-I 0 W/m 5,1 km/h (1 Bft)
15.10.2013 03:58 9,4 C 7,8 C 96 % 1008,2 hPa 0,0 l/m 0 min 0 min 0,0 UV-I 0 W/m 5,1 km/h (1 Bft)
15.10.2013 04:00 9,4 C 7,8 C 96 % 1008,2 hPa 0,0 l/m 0 min 0 min 0,0 UV-I 0 W/m 10,3 km/h (2 Bft)
15.10.2013 04:02 9,4 C 7,8 C 96 % 1008,1 hPa 0,0 l/m 0 min 0 min 0,0 UV-I 0 W/m 5,1 km/h (1 Bft)
15.10.2013 04:06 9,4 C 7,8 C 96 % 1008,1 hPa 0,0 l/m 0 min 0 min 0,0 UV-I 0 W/m 0,0 km/h (0 Bft)
15.10.2013 04:08 9,4 C 7,8 C 96 % 1008,2 hPa 0,0 l/m 0 min 0 min 0,0 UV-I 0 W/m 0,0 km/h (0 Bft)
15.10.2013 04:10 9,4 C 7,8 C 96 % 1008,1 hPa 0,0 l/m 0 min 0 min 0,0 UV-I 0 W/m 0,0 km/h (0 Bft)
15.10.2013 04:12 9,4 C 7,8 C 96 % 1008,1 hPa 0,0 l/m 0 min 0 min 0,0 UV-I 0 W/m 0,0 km/h (0 Bft)
15.10.2013 04:14 9,4 C 7,8 C 95 % 1008,0 hPa 0,0 l/m 0 min 0 min 0,0 UV-I 0 W/m 2,6 km/h (1 Bft)
15.10.2013 04:16 9,3 C 7,8 C 95 % 1008,0 hPa 0,0 l/m 0 min 0 min 0,0 UV-I 0 W/m 2,6 km/h (1 Bft)
15.10.2013 04:18 9,3 C 7,8 C 95 % 1008,0 hPa 0,0 l/m 0 min 0 min 0,0 UV-I 0 W/m 0,0 km/h (0 Bft)
15.10.2013 04:20 9,3 C 7,8 C 95 % 1008,0 hPa 0,0 l/m 0 min 0 min 0,0 UV-I 0 W/m 5,1 km/h (1 Bft)
15.10.2013 04:22 9,2 C 7,8 C 95 % 1008,0 hPa 0,0 l/m 0 min 0 min 0,0 UV-I 0 W/m 0,0 km/h (0 Bft)
15.10.2013 04:24 9,2 C 7,2 C 95 % 1008,0 hPa 0,0 l/m 0 min 0 min 0,0 UV-I 0 W/m 0,0 km/h (0 Bft)
15.10.2013 04:26 9,2 C 7,2 C 95 % 1008,0 hPa 0,0 l/m 0 min 0 min 0,0 UV-I 0 W/m 5,1 km/h (1 Bft)
15.10.2013 04:28 9,2 C 7,2 C 95 % 1007,9 hPa 0,0 l/m 0 min 0 min 0,0 UV-I 0 W/m 0,0 km/h (0 Bft)
15.10.2013 04:30 9,2 C 7,8 C 95 % 1008,0 hPa 0,0 l/m 0 min 0 min 0,0 UV-I 0 W/m 2,6 km/h (1 Bft)
15.10.2013 04:32 9,2 C 7,8 C 95 % 1008,0 hPa 0,0 l/m 0 min 0 min 0,0 UV-I 0 W/m 0,0 km/h (0 Bft)
15.10.2013 04:34 9,2 C 7,8 C 95 % 1008,0 hPa 0,0 l/m 0 min 0 min 0,0 UV-I 0 W/m 7,7 km/h (2 Bft)
15.10.2013 04:36 9,2 C 7,8 C 95 % 1008,0 hPa 0,0 l/m 0 min 0 min 0,0 UV-I 0 W/m 2,6 km/h (1 Bft)
15.10.2013 04:38 9,2 C 7,8 C 95 % 1008,1 hPa 0,0 l/m 0 min 0 min 0,0 UV-I 0 W/m 5,1 km/h (1 Bft)
15.10.2013 04:40 9,2 C 7,8 C 95 % 1008,1 hPa 0,0 l/m 0 min 0 min 0,0 UV-I 0 W/m 0,0 km/h (0 Bft)
15.10.2013 04:42 9,3 C 7,8 C 95 % 1008,1 hPa 0,0 l/m 0 min 0 min 0,0 UV-I 0 W/m 0,0 km/h (0 Bft)
15.10.2013 04:44 9,3 C 7,8 C 95 % 1008,0 hPa 0,0 l/m 0 min 0 min 0,0 UV-I 0 W/m 7,7 km/h (2 Bft)
15.10.2013 04:46 9,3 C 7,8 C 95 % 1008,1 hPa 0,0 l/m 0 min 0 min 0,0 UV-I 0 W/m 5,1 km/h (1 Bft)
15.10.2013 04:48 9,4 C 7,8 C 95 % 1008,1 hPa 0,0 l/m 0 min 0 min 0,0 UV-I 0 W/m 0,0 km/h (0 Bft)
15.10.2013 04:50 9,4 C 7,8 C 95 % 1008,1 hPa 0,0 l/m 0 min 0 min 0,0 UV-I 0 W/m 2,6 km/h (1 Bft)
15.10.2013 04:52 9,4 C 7,8 C 95 % 1008,0 hPa 0,0 l/m 0 min 0 min 0,0 UV-I 0 W/m 5,1 km/h (1 Bft)
15.10.2013 04:54 9,5 C 7,8 C 95 % 1008,0 hPa 0,0 l/m 0 min 0 min 0,0 UV-I 0 W/m 2,6 km/h (1 Bft)
15.10.2013 04:56 9,5 C 7,8 C 95 % 1008,1 hPa 0,0 l/m 0 min 0 min 0,0 UV-I 0 W/m 12,9 km/h (3 Bft)
15.10.2013 04:58 9,5 C 7,8 C 95 % 1008,0 hPa 0,0 l/m 0 min 0 min 0,0 UV-I 0 W/m 2,6 km/h (1 Bft)
15.10.2013 05:00 9,5 C 8,3 C 95 % 1008,0 hPa 0,0 l/m 0 min 0 min 0,0 UV-I 0 W/m 2,6 km/h (1 Bft)
15.10.2013 05:02 9,6 C 8,3 C 95 % 1008,0 hPa 0,0 l/m 0 min 0 min 0,0 UV-I 0 W/m 10,3 km/h (2 Bft)
15.10.2013 05:06 9,6 C 7,8 C 95 % 1008,0 hPa 0,0 l/m 0 min 0 min 0,0 UV-I 0 W/m 10,3 km/h (2 Bft)
15.10.2013 05:08 9,6 C 7,8 C 95 % 1008,0 hPa 0,0 l/m 0 min 0 min 0,0 UV-I 0 W/m 0,0 km/h (0 Bft)
15.10.2013 05:10 9,6 C 7,8 C 95 % 1007,9 hPa 0,0 l/m 0 min 0 min 0,0 UV-I 0 W/m 15,4 km/h (3 Bft)
15.10.2013 05:12 9,6 C 7,8 C 95 % 1007,9 hPa 0,0 l/m 0 min 0 min 0,0 UV-I 0 W/m 10,3 km/h (2 Bft)
15.10.2013 05:14 9,6 C 7,8 C 95 % 1007,8 hPa 0,0 l/m 0 min 0 min 0,0 UV-I 0 W/m 0,0 km/h (0 Bft)
15.10.2013 05:16 9,6 C 7,8 C 94 % 1007,9 hPa 0,0 l/m 0 min 0 min 0,0 UV-I 0 W/m 10,3 km/h (2 Bft)
15.10.2013 05:18 9,5 C 7,8 C 94 % 1007,9 hPa 0,0 l/m 0 min 0 min 0,0 UV-I 0 W/m 0,0 km/h (0 Bft)
15.10.2013 05:20 9,5 C 7,8 C 94 % 1007,9 hPa 0,0 l/m 0 min 0 min 0,0 UV-I 0 W/m 7,7 km/h (2 Bft)
15.10.2013 05:22 9,5 C 7,8 C 94 % 1007,9 hPa 0,0 l/m 0 min 0 min 0,0 UV-I 0 W/m 10,3 km/h (2 Bft)
15.10.2013 05:24 9,4 C 7,8 C 94 % 1007,9 hPa 0,0 l/m 0 min 0 min 0,0 UV-I 0 W/m 10,3 km/h (2 Bft)
15.10.2013 05:26 9,4 C 7,8 C 94 % 1007,9 hPa 0,0 l/m 0 min 0 min 0,0 UV-I 0 W/m 12,9 km/h (3 Bft)
15.10.2013 05:28 9,4 C 7,8 C 94 % 1007,8 hPa 0,0 l/m 0 min 0 min 0,0 UV-I 0 W/m 0,0 km/h (0 Bft)
15.10.2013 05:30 9,3 C 7,8 C 94 % 1007,9 hPa 0,0 l/m 0 min 0 min 0,0 UV-I 0 W/m 0,0 km/h (0 Bft)
15.10.2013 05:32 9,3 C 7,8 C 94 % 1007,8 hPa 0,0 l/m 0 min 0 min 0,0 UV-I 0 W/m 5,1 km/h (1 Bft)
15.10.2013 05:34 9,3 C 7,8 C 94 % 1007,9 hPa 0,0 l/m 0 min 0 min 0,0 UV-I 0 W/m 12,9 km/h (3 Bft)
15.10.2013 05:36 9,3 C 7,8 C 94 % 1007,8 hPa 0,0 l/m 0 min 0 min 0,0 UV-I 0 W/m 0,0 km/h (0 Bft)
15.10.2013 05:38 9,2 C 7,8 C 94 % 1007,9 hPa 0,0 l/m 0 min 0 min 0,0 UV-I 0 W/m 0,0 km/h (0 Bft)
15.10.2013 05:40 9,2 C 7,8 C 94 % 1007,9 hPa 0,0 l/m 0 min 0 min 0,0 UV-I 0 W/m 5,1 km/h (1 Bft)
15.10.2013 05:42 9,2 C 7,8 C 94 % 1007,8 hPa 0,0 l/m 0 min 0 min 0,0 UV-I 0 W/m 7,7 km/h (2 Bft)
15.10.2013 05:44 9,2 C 7,8 C 94 % 1007,9 hPa 0,0 l/m 0 min 0 min 0,0 UV-I 0 W/m 10,3 km/h (2 Bft)
15.10.2013 05:46 9,1 C 7,2 C 94 % 1007,8 hPa 0,0 l/m 0 min 0 min 0,0 UV-I 0 W/m 0,0 km/h (0 Bft)
15.10.2013 05:48 9,1 C 7,2 C 94 % 1007,8 hPa 0,0 l/m 0 min 0 min 0,0 UV-I 0 W/m 2,6 km/h (1 Bft)
15.10.2013 05:50 9,1 C 7,2 C 94 % 1007,8 hPa 0,0 l/m 0 min 0 min 0,0 UV-I 0 W/m 0,0 km/h (0 Bft)
15.10.2013 05:52 9,1 C 7,2 C 94 % 1007,7 hPa 0,0 l/m 0 min 0 min 0,0 UV-I 0 W/m 2,6 km/h (1 Bft)
15.10.2013 05:54 9,1 C 7,2 C 94 % 1007,7 hPa 0,0 l/m 0 min 0 min 0,0 UV-I 0 W/m 0,0 km/h (0 Bft)
15.10.2013 05:56 9,0 C 7,2 C 94 % 1007,8 hPa 0,0 l/m 0 min 0 min 0,0 UV-I 0 W/m 5,1 km/h (1 Bft)
15.10.2013 05:58 9,0 C 7,2 C 94 % 1007,8 hPa 0,0 l/m 0 min 0 min 0,0 UV-I 0 W/m 0,0 km/h (0 Bft)
15.10.2013 06:00 8,9 C 7,2 C 94 % 1007,8 hPa 0,0 l/m 0 min 0 min 0,0 UV-I 0 W/m 2,6 km/h (1 Bft)
15.10.2013 06:02 8,9 C 7,2 C 94 % 1007,8 hPa 0,0 l/m 0 min 0 min 0,0 UV-I 0 W/m 2,6 km/h (1 Bft)
15.10.2013 06:06 8,9 C 7,2 C 94 % 1007,8 hPa 0,0 l/m 0 min 0 min 0,0 UV-I 0 W/m 0,0 km/h (0 Bft)
15.10.2013 06:08 8,8 C 7,2 C 94 % 1007,8 hPa 0,0 l/m 0 min 0 min 0,0 UV-I 0 W/m 0,0 km/h (0 Bft)
15.10.2013 06:10 8,8 C 7,2 C 94 % 1007,8 hPa 0,0 l/m 0 min 0 min 0,0 UV-I 0 W/m 0,0 km/h (0 Bft)
15.10.2013 06:12 8,8 C 7,2 C 94 % 1007,7 hPa 0,0 l/m 0 min 0 min 0,0 UV-I 0 W/m 2,6 km/h (1 Bft)
15.10.2013 06:14 8,8 C 7,2 C 94 % 1007,7 hPa 0,0 l/m 0 min 0 min 0,0 UV-I 0 W/m 0,0 km/h (0 Bft)
15.10.2013 06:16 8,8 C 7,2 C 94 % 1007,7 hPa 0,0 l/m 0 min 0 min 0,0 UV-I 0 W/m 0,0 km/h (0 Bft)
15.10.2013 06:18 8,8 C 7,8 C 95 % 1007,7 hPa 0,0 l/m 0 min 0 min 0,0 UV-I 0 W/m 10,3 km/h (2 Bft)
15.10.2013 06:20 8,9 C 7,8 C 95 % 1007,7 hPa 0,0 l/m 0 min 0 min 0,0 UV-I 0 W/m 2,6 km/h (1 Bft)
15.10.2013 06:22 8,9 C 7,8 C 95 % 1007,6 hPa 0,0 l/m 0 min 0 min 0,0 UV-I 0 W/m 0,0 km/h (0 Bft)
15.10.2013 06:24 8,9 C 7,8 C 95 % 1007,6 hPa 0,0 l/m 0 min 0 min 0,0 UV-I 0 W/m 7,7 km/h (2 Bft)
15.10.2013 06:26 9,0 C 7,8 C 95 % 1007,8 hPa 0,0 l/m 0 min 0 min 0,0 UV-I 0 W/m 2,6 km/h (1 Bft)
15.10.2013 06:28 9,0 C 7,8 C 95 % 1007,7 hPa 0,0 l/m 0 min 0 min 0,0 UV-I 0 W/m 5,1 km/h (1 Bft)
15.10.2013 06:30 9,1 C 7,8 C 95 % 1007,8 hPa 0,0 l/m 0 min 0 min 0,0 UV-I 0 W/m 5,1 km/h (1 Bft)
15.10.2013 06:32 9,1 C 7,8 C 95 % 1007,7 hPa 0,0 l/m 0 min 0 min 0,0 UV-I 0 W/m 0,0 km/h (0 Bft)
15.10.2013 06:34 9,1 C 7,8 C 95 % 1007,7 hPa 0,0 l/m 0 min 0 min 0,0 UV-I 0 W/m 0,0 km/h (0 Bft)
15.10.2013 06:36 9,1 C 7,8 C 95 % 1007,7 hPa 0,0 l/m 0 min 0 min 0,0 UV-I 0 W/m 0,0 km/h (0 Bft)
15.10.2013 06:38 9,2 C 7,8 C 95 % 1007,6 hPa 0,0 l/m 0 min 0 min 0,0 UV-I 0 W/m 7,7 km/h (2 Bft)
15.10.2013 06:40 9,2 C 7,8 C 95 % 1007,6 hPa 0,0 l/m 0 min 0 min 0,0 UV-I 0 W/m 5,1 km/h (1 Bft)
15.10.2013 06:42 9,2 C 7,8 C 95 % 1007,7 hPa 0,0 l/m 0 min 0 min 0,0 UV-I 0 W/m 7,7 km/h (2 Bft)
15.10.2013 06:44 9,2 C 7,8 C 95 % 1007,7 hPa 0,0 l/m 0 min 0 min 0,0 UV-I 0 W/m 7,7 km/h (2 Bft)
15.10.2013 06:46 9,2 C 8,3 C 95 % 1007,7 hPa 0,0 l/m 0 min 0 min 0,0 UV-I 0 W/m 0,0 km/h (0 Bft)
15.10.2013 06:48 9,3 C 8,3 C 95 % 1007,7 hPa 0,0 l/m 0 min 0 min 0,0 UV-I 0 W/m 0,0 km/h (0 Bft)
15.10.2013 06:50 9,3 C 8,3 C 95 % 1007,7 hPa 0,2 l/m 0 min 2 min 0,0 UV-I 0 W/m 2,6 km/h (1 Bft)
15.10.2013 06:52 9,3 C 7,8 C 95 % 1007,7 hPa 0,0 l/m 0 min 2 min 0,0 UV-I 0 W/m 0,0 km/h (0 Bft)
15.10.2013 06:54 9,3 C 7,8 C 95 % 1007,7 hPa 0,0 l/m 0 min 2 min 0,0 UV-I 0 W/m 0,0 km/h (0 Bft)
15.10.2013 06:56 9,3 C 7,8 C 95 % 1007,7 hPa 0,0 l/m 0 min 2 min 0,0 UV-I 0 W/m 2,6 km/h (1 Bft)
15.10.2013 06:58 9,3 C 7,8 C 95 % 1007,7 hPa 0,0 l/m 0 min 2 min 0,0 UV-I 0 W/m 0,0 km/h (0 Bft)
15.10.2013 07:00 9,3 C 7,8 C 95 % 1007,6 hPa 0,0 l/m 0 min 2 min 0,0 UV-I 0 W/m 0,0 km/h (0 Bft)
15.10.2013 07:02 9,3 C 7,8 C 95 % 1007,6 hPa 0,0 l/m 0 min 2 min 0,0 UV-I 0 W/m 0,0 km/h (0 Bft)
15.10.2013 07:06 9,3 C 7,8 C 95 % 1007,5 hPa 0,0 l/m 0 min 0 min 0,0 UV-I 0 W/m 0,0 km/h (0 Bft)
15.10.2013 07:08 9,3 C 7,8 C 95 % 1007,6 hPa 0,0 l/m 0 min 0 min 0,0 UV-I 0 W/m 0,0 km/h (0 Bft)
15.10.2013 07:10 9,3 C 7,8 C 95 % 1007,6 hPa 0,0 l/m 0 min 0 min 0,0 UV-I 0 W/m 0,0 km/h (0 Bft)
15.10.2013 07:12 9,3 C 7,8 C 95 % 1007,6 hPa 0,0 l/m 0 min 0 min 0,0 UV-I 0 W/m 0,0 km/h (0 Bft)
15.10.2013 07:14 9,3 C 7,8 C 95 % 1007,5 hPa 0,0 l/m 0 min 0 min 0,0 UV-I 0 W/m 2,6 km/h (1 Bft)
15.10.2013 07:16 9,3 C 7,8 C 95 % 1007,5 hPa 0,0 l/m 0 min 0 min 0,0 UV-I 0 W/m 0,0 km/h (0 Bft)
15.10.2013 07:18 9,3 C 7,8 C 95 % 1007,5 hPa 0,0 l/m 0 min 0 min 0,0 UV-I 0 W/m 0,0 km/h (0 Bft)
15.10.2013 07:20 9,2 C 7,8 C 95 % 1007,5 hPa 0,0 l/m 0 min 0 min 0,0 UV-I 0 W/m 0,0 km/h (0 Bft)
15.10.2013 07:22 9,2 C 7,8 C 95 % 1007,5 hPa 0,0 l/m 0 min 0 min 0,0 UV-I 0 W/m 0,0 km/h (0 Bft)
15.10.2013 07:24 9,2 C 7,8 C 95 % 1007,4 hPa 0,0 l/m 0 min 0 min 0,0 UV-I 0 W/m 2,6 km/h (1 Bft)
15.10.2013 07:26 9,2 C 7,8 C 95 % 1007,4 hPa 0,0 l/m 0 min 0 min 0,0 UV-I 0 W/m 7,7 km/h (2 Bft)
15.10.2013 07:28 9,2 C 7,8 C 95 % 1007,4 hPa 0,0 l/m 0 min 0 min 0,0 UV-I 0 W/m 10,3 km/h (2 Bft)
15.10.2013 07:30 9,2 C 7,8 C 95 % 1007,3 hPa 0,0 l/m 0 min 0 min 0,0 UV-I 0 W/m 0,0 km/h (0 Bft)
15.10.2013 07:32 9,2 C 7,8 C 95 % 1007,5 hPa 0,0 l/m 0 min 0 min 0,0 UV-I 0 W/m 0,0 km/h (0 Bft)
15.10.2013 07:34 9,2 C 7,8 C 95 % 1007,3 hPa 0,0 l/m 0 min 0 min 0,0 UV-I 0 W/m 2,6 km/h (1 Bft)
15.10.2013 07:36 9,2 C 7,8 C 95 % 1007,5 hPa 0,0 l/m 0 min 0 min 0,0 UV-I 0 W/m 7,7 km/h (2 Bft)
15.10.2013 07:38 9,3 C 7,8 C 95 % 1007,4 hPa 0,0 l/m 0 min 0 min 0,0 UV-I 0 W/m 2,6 km/h (1 Bft)
15.10.2013 07:40 9,3 C 7,8 C 95 % 1007,3 hPa 0,0 l/m 0 min 0 min 0,0 UV-I 0 W/m 0,0 km/h (0 Bft)
15.10.2013 07:42 9,3 C 7,8 C 95 % 1007,3 hPa 0,0 l/m 0 min 0 min 0,0 UV-I 0 W/m 0,0 km/h (0 Bft)
15.10.2013 07:44 9,3 C 7,8 C 95 % 1007,3 hPa 0,0 l/m 0 min 0 min 0,0 UV-I 0 W/m 5,1 km/h (1 Bft)
15.10.2013 07:46 9,3 C 7,8 C 95 % 1007,5 hPa 0,0 l/m 0 min 0 min 0,0 UV-I 0 W/m 5,1 km/h (1 Bft)
15.10.2013 07:48 9,3 C 7,8 C 95 % 1007,4 hPa 0,0 l/m 0 min 0 min 0,0 UV-I 0 W/m 0,0 km/h (0 Bft)
15.10.2013 07:50 9,4 C 7,8 C 95 % 1007,4 hPa 0,0 l/m 0 min 0 min 0,0 UV-I 0 W/m 2,6 km/h (1 Bft)
15.10.2013 07:52 9,4 C 7,8 C 95 % 1007,5 hPa 0,0 l/m 0 min 0 min 0,0 UV-I 0 W/m 0,0 km/h (0 Bft)
15.10.2013 07:54 9,4 C 7,8 C 95 % 1007,4 hPa 0,0 l/m 0 min 0 min 0,0 UV-I 0 W/m 0,0 km/h (0 Bft)
15.10.2013 07:56 9,4 C 7,8 C 95 % 1007,4 hPa 0,0 l/m 0 min 0 min 0,0 UV-I 0 W/m 0,0 km/h (0 Bft)
15.10.2013 07:58 9,4 C 7,8 C 95 % 1007,4 hPa 0,0 l/m 0 min 2 min 0,0 UV-I 0 W/m 0,0 km/h (0 Bft)
15.10.2013 08:00 9,4 C 7,8 C 95 % 1007,4 hPa 0,0 l/m 0 min 2 min 0,0 UV-I 0 W/m 0,0 km/h (0 Bft)
15.10.2013 08:02 9,4 C 7,8 C 95 % 1007,5 hPa 0,2 l/m 0 min 2 min 0,0 UV-I 0 W/m 0,0 km/h (0 Bft)
15.10.2013 08:06 9,4 C 7,8 C 95 % 1007,5 hPa 0,2 l/m 0 min 2 min 0,0 UV-I 0 W/m 0,0 km/h (0 Bft)
15.10.2013 08:08 9,4 C 7,8 C 95 % 1007,5 hPa 0,0 l/m 0 min 2 min 0,0 UV-I 0 W/m 2,6 km/h (1 Bft)
15.10.2013 08:10 9,4 C 7,8 C 95 % 1007,5 hPa 0,0 l/m 0 min 2 min 0,0 UV-I 0 W/m 10,3 km/h (2 Bft)
15.10.2013 08:12 9,4 C 7,8 C 95 % 1007,5 hPa 0,0 l/m 0 min 2 min 0,0 UV-I 0 W/m 12,9 km/h (3 Bft)
15.10.2013 08:14 9,4 C 7,8 C 95 % 1007,4 hPa 0,0 l/m 0 min 2 min 0,0 UV-I 5 W/m 0,0 km/h (0 Bft)
15.10.2013 08:16 9,4 C 7,8 C 95 % 1007,5 hPa 0,2 l/m 0 min 2 min 0,0 UV-I 0 W/m 0,0 km/h (0 Bft)
15.10.2013 08:18 9,4 C 7,8 C 95 % 1007,5 hPa 0,0 l/m 0 min 2 min 0,0 UV-I 5 W/m 0,0 km/h (0 Bft)
15.10.2013 08:20 9,3 C 7,8 C 95 % 1007,6 hPa 0,2 l/m 0 min 2 min 0,0 UV-I 5 W/m 0,0 km/h (0 Bft)
15.10.2013 08:22 9,3 C 7,8 C 95 % 1007,5 hPa 0,0 l/m 0 min 2 min 0,0 UV-I 5 W/m 0,0 km/h (0 Bft)
15.10.2013 08:24 9,3 C 7,8 C 95 % 1007,5 hPa 0,0 l/m 0 min 2 min 0,0 UV-I 5 W/m 0,0 km/h (0 Bft)
15.10.2013 08:26 9,3 C 7,8 C 95 % 1007,6 hPa 0,0 l/m 0 min 2 min 0,0 UV-I 5 W/m 0,0 km/h (0 Bft)
15.10.2013 08:28 9,3 C 7,8 C 95 % 1007,7 hPa 0,0 l/m 0 min 2 min 0,0 UV-I 7 W/m 0,0 km/h (0 Bft)
15.10.2013 08:30 9,3 C 7,8 C 95 % 1007,6 hPa 0,0 l/m 0 min 0 min 0,0 UV-I 7 W/m 2,6 km/h (1 Bft)
15.10.2013 08:32 9,3 C 7,8 C 95 % 1007,6 hPa 0,0 l/m 0 min 0 min 0,0 UV-I 9 W/m 0,0 km/h (0 Bft)
15.10.2013 08:34 9,2 C 7,8 C 95 % 1007,6 hPa 0,0 l/m 0 min 0 min 0,0 UV-I 9 W/m 2,6 km/h (1 Bft)
15.10.2013 08:36 9,2 C 7,8 C 95 % 1007,6 hPa 0,0 l/m 0 min 0 min 0,0 UV-I 11 W/m 2,6 km/h (1 Bft)
15.10.2013 08:38 9,2 C 7,8 C 95 % 1007,6 hPa 0,0 l/m 0 min 0 min 0,0 UV-I 12 W/m 10,3 km/h (2 Bft)
15.10.2013 08:40 9,2 C 7,8 C 95 % 1007,5 hPa 0,0 l/m 0 min 0 min 0,0 UV-I 12 W/m 0,0 km/h (0 Bft)
15.10.2013 08:42 9,2 C 7,8 C 96 % 1007,5 hPa 0,0 l/m 0 min 0 min 0,0 UV-I 14 W/m 7,7 km/h (2 Bft)
15.10.2013 08:44 9,2 C 7,8 C 96 % 1007,5 hPa 0,0 l/m 0 min 0 min 0,0 UV-I 14 W/m 0,0 km/h (0 Bft)
15.10.2013 08:46 9,2 C 7,8 C 96 % 1007,4 hPa 0,0 l/m 0 min 0 min 0,0 UV-I 14 W/m 0,0 km/h (0 Bft)
15.10.2013 08:48 9,2 C 7,8 C 96 % 1007,4 hPa 0,0 l/m 0 min 0 min 0,0 UV-I 16 W/m 0,0 km/h (0 Bft)
15.10.2013 08:50 9,2 C 7,8 C 96 % 1007,4 hPa 0,0 l/m 0 min 0 min 0,0 UV-I 16 W/m 0,0 km/h (0 Bft)
15.10.2013 08:52 9,1 C 7,8 C 96 % 1007,5 hPa 0,0 l/m 0 min 0 min 0,0 UV-I 16 W/m 0,0 km/h (0 Bft)
15.10.2013 08:54 9,1 C 7,8 C 96 % 1007,5 hPa 0,0 l/m 0 min 0 min 0,0 UV-I 19 W/m 0,0 km/h (0 Bft)
15.10.2013 08:56 9,1 C 7,8 C 96 % 1007,5 hPa 0,0 l/m 0 min 0 min 0,0 UV-I 25 W/m 0,0 km/h (0 Bft)
15.10.2013 08:58 9,2 C 7,8 C 96 % 1007,5 hPa 0,0 l/m 0 min 0 min 0,0 UV-I 26 W/m 0,0 km/h (0 Bft)
15.10.2013 09:00 9,2 C 7,8 C 96 % 1007,5 hPa 0,0 l/m 0 min 2 min 0,0 UV-I 32 W/m 0,0 km/h (0 Bft)
15.10.2013 09:02 9,2 C 7,8 C 96 % 1007,5 hPa 0,0 l/m 0 min 0 min 0,0 UV-I 33 W/m 5,1 km/h (1 Bft)
15.10.2013 09:06 9,3 C 8,3 C 96 % 1007,5 hPa 0,0 l/m 0 min 0 min 0,0 UV-I 28 W/m 7,7 km/h (2 Bft)
15.10.2013 09:08 9,3 C 8,3 C 96 % 1007,5 hPa 0,0 l/m 0 min 0 min 0,0 UV-I 23 W/m 7,7 km/h (2 Bft)
15.10.2013 09:10 9,3 C 8,3 C 96 % 1007,5 hPa 0,0 l/m 0 min 0 min 0,0 UV-I 26 W/m 5,1 km/h (1 Bft)
15.10.2013 09:12 9,3 C 8,3 C 96 % 1007,5 hPa 0,0 l/m 0 min 0 min 0,0 UV-I 21 W/m 0,0 km/h (0 Bft)
15.10.2013 09:14 9,4 C 8,3 C 96 % 1007,5 hPa 0,0 l/m 0 min 0 min 0,0 UV-I 23 W/m 5,1 km/h (1 Bft)
15.10.2013 09:16 9,4 C 8,3 C 96 % 1007,5 hPa 0,0 l/m 0 min 0 min 0,0 UV-I 26 W/m 5,1 km/h (1 Bft)
15.10.2013 09:18 9,4 C 8,3 C 96 % 1007,5 hPa 0,0 l/m 0 min 0 min 0,0 UV-I 37 W/m 0,0 km/h (0 Bft)
15.10.2013 09:20 9,4 C 8,3 C 96 % 1007,5 hPa 0,0 l/m 0 min 0 min 0,0 UV-I 39 W/m 0,0 km/h (0 Bft)
15.10.2013 09:22 9,4 C 8,3 C 96 % 1007,5 hPa 0,0 l/m 0 min 0 min 0,0 UV-I 35 W/m 0,0 km/h (0 Bft)
15.10.2013 09:24 9,4 C 8,3 C 96 % 1007,5 hPa 0,0 l/m 0 min 0 min 0,0 UV-I 44 W/m 7,7 km/h (2 Bft)
15.10.2013 09:26 9,4 C 8,3 C 96 % 1007,6 hPa 0,0 l/m 0 min 0 min 0,0 UV-I 39 W/m 0,0 km/h (0 Bft)
15.10.2013 09:28 9,4 C 8,3 C 96 % 1007,6 hPa 0,0 l/m 0 min 0 min 0,0 UV-I 30 W/m 0,0 km/h (0 Bft)
15.10.2013 09:30 9,4 C 8,3 C 96 % 1007,5 hPa 0,0 l/m 0 min 0 min 0,0 UV-I 39 W/m 10,3 km/h (2 Bft)
15.10.2013 09:32 9,5 C 8,3 C 97 % 1007,5 hPa 0,0 l/m 0 min 0 min 0,0 UV-I 44 W/m 2,6 km/h (1 Bft)
15.10.2013 09:34 9,5 C 8,3 C 97 % 1007,6 hPa 0,0 l/m 0 min 0 min 0,0 UV-I 33 W/m 0,0 km/h (0 Bft)
15.10.2013 09:36 9,5 C 8,3 C 97 % 1007,6 hPa 0,0 l/m 0 min 0 min 0,0 UV-I 39 W/m 5,1 km/h (1 Bft)
15.10.2013 09:38 9,5 C 8,3 C 97 % 1007,5 hPa 0,0 l/m 0 min 0 min 0,0 UV-I 35 W/m 2,6 km/h (1 Bft)
15.10.2013 09:40 9,6 C 8,3 C 97 % 1007,5 hPa 0,0 l/m 0 min 0 min 0,0 UV-I 40 W/m 7,7 km/h (2 Bft)
15.10.2013 09:42 9,6 C 8,3 C 97 % 1007,5 hPa 0,0 l/m 0 min 0 min 0,0 UV-I 39 W/m 7,7 km/h (2 Bft)
15.10.2013 09:44 9,6 C 8,3 C 96 % 1007,4 hPa 0,0 l/m 0 min 0 min 0,0 UV-I 30 W/m 7,7 km/h (2 Bft)
15.10.2013 09:46 9,6 C 8,3 C 97 % 1007,5 hPa 0,0 l/m 0 min 0 min 0,0 UV-I 28 W/m 5,1 km/h (1 Bft)
15.10.2013 09:48 9,6 C 8,3 C 97 % 1007,4 hPa 0,0 l/m 0 min 0 min 0,0 UV-I 32 W/m 5,1 km/h (1 Bft)
15.10.2013 09:50 9,6 C 8,3 C 97 % 1007,4 hPa 0,0 l/m 0 min 0 min 0,0 UV-I 35 W/m 0,0 km/h (0 Bft)
15.10.2013 09:52 9,6 C 8,3 C 97 % 1007,4 hPa 0,0 l/m 0 min 0 min 0,0 UV-I 35 W/m 2,6 km/h (1 Bft)
15.10.2013 09:54 9,7 C 8,3 C 97 % 1007,4 hPa 0,0 l/m 0 min 2 min 0,0 UV-I 33 W/m 0,0 km/h (0 Bft)
15.10.2013 09:56 9,7 C 8,3 C 97 % 1007,4 hPa 0,0 l/m 0 min 0 min 0,0 UV-I 30 W/m 0,0 km/h (0 Bft)
15.10.2013 09:58 9,7 C 8,3 C 97 % 1007,3 hPa 0,0 l/m 0 min 0 min 0,0 UV-I 35 W/m 5,1 km/h (1 Bft)
15.10.2013 10:00 9,7 C 8,3 C 96 % 1007,3 hPa 0,0 l/m 0 min 0 min 0,0 UV-I 26 W/m 10,3 km/h (2 Bft)
15.10.2013 10:02 9,7 C 8,3 C 96 % 1007,3 hPa 0,0 l/m 0 min 0 min 0,0 UV-I 28 W/m 5,1 km/h (1 Bft)
15.10.2013 10:06 9,7 C 8,3 C 96 % 1007,2 hPa 0,0 l/m 0 min 0 min 0,0 UV-I 35 W/m 5,1 km/h (1 Bft)
15.10.2013 10:08 9,7 C 8,3 C 96 % 1007,2 hPa 0,0 l/m 0 min 0 min 0,0 UV-I 35 W/m 15,4 km/h (3 Bft)
15.10.2013 10:10 9,8 C 8,3 C 96 % 1007,2 hPa 0,0 l/m 0 min 0 min 0,0 UV-I 46 W/m 5,1 km/h (1 Bft)
15.10.2013 10:12 9,8 C 8,3 C 96 % 1007,3 hPa 0,0 l/m 0 min 2 min 0,0 UV-I 49 W/m 12,9 km/h (3 Bft)
15.10.2013 10:14 9,8 C 8,3 C 96 % 1007,2 hPa 0,0 l/m 0 min 2 min 0,0 UV-I 47 W/m 15,4 km/h (3 Bft)
15.10.2013 10:16 9,8 C 8,3 C 96 % 1007,2 hPa 0,0 l/m 0 min 2 min 0,0 UV-I 44 W/m 10,3 km/h (2 Bft)
15.10.2013 10:18 9,9 C 8,3 C 96 % 1007,2 hPa 0,0 l/m 0 min 2 min 0,0 UV-I 39 W/m 5,1 km/h (1 Bft)
15.10.2013 10:20 9,9 C 8,3 C 96 % 1007,2 hPa 0,0 l/m 0 min 2 min 0,0 UV-I 32 W/m 12,9 km/h (3 Bft)
15.10.2013 10:22 9,9 C 8,3 C 96 % 1007,2 hPa 0,0 l/m 0 min 2 min 0,0 UV-I 23 W/m 7,7 km/h (2 Bft)
15.10.2013 10:24 9,9 C 8,3 C 95 % 1007,2 hPa 0,0 l/m 0 min 2 min 0,0 UV-I 25 W/m 7,7 km/h (2 Bft)
15.10.2013 10:26 9,9 C 8,3 C 95 % 1007,2 hPa 0,0 l/m 0 min 2 min 0,0 UV-I 25 W/m 7,7 km/h (2 Bft)
15.10.2013 10:28 9,9 C 8,3 C 95 % 1007,1 hPa 0,0 l/m 0 min 2 min 0,0 UV-I 19 W/m 5,1 km/h (1 Bft)
15.10.2013 10:30 9,9 C 8,3 C 95 % 1007,1 hPa 0,0 l/m 0 min 2 min 0,0 UV-I 30 W/m 0,0 km/h (0 Bft)
15.10.2013 10:32 9,9 C 8,3 C 95 % 1007,2 hPa 0,0 l/m 0 min 2 min 0,0 UV-I 35 W/m 5,1 km/h (1 Bft)
15.10.2013 10:34 9,9 C 8,3 C 95 % 1007,2 hPa 0,2 l/m 0 min 2 min 0,0 UV-I 32 W/m 10,3 km/h (2 Bft)
15.10.2013 10:36 9,9 C 8,3 C 95 % 1007,3 hPa 0,0 l/m 0 min 2 min 0,0 UV-I 26 W/m 12,9 km/h (3 Bft)
15.10.2013 10:38 9,9 C 8,3 C 95 % 1007,2 hPa 0,0 l/m 0 min 2 min 0,0 UV-I 21 W/m 2,6 km/h (1 Bft)
15.10.2013 10:40 9,9 C 8,3 C 95 % 1007,1 hPa 0,0 l/m 0 min 2 min 0,0 UV-I 19 W/m 0,0 km/h (0 Bft)
15.10.2013 10:42 9,9 C 8,3 C 95 % 1007,1 hPa 0,0 l/m 0 min 2 min 0,0 UV-I 18 W/m 2,6 km/h (1 Bft)
15.10.2013 10:44 9,9 C 8,3 C 95 % 1007,2 hPa 0,0 l/m 0 min 2 min 0,0 UV-I 25 W/m 7,7 km/h (2 Bft)
15.10.2013 10:46 9,9 C 8,3 C 95 % 1007,3 hPa 0,2 l/m 0 min 2 min 0,0 UV-I 16 W/m 12,9 km/h (3 Bft)
15.10.2013 10:48 9,9 C 8,3 C 95 % 1007,3 hPa 0,2 l/m 0 min 2 min 0,0 UV-I 9 W/m 12,9 km/h (3 Bft)
15.10.2013 10:50 9,8 C 8,3 C 95 % 1007,5 hPa 1,0 l/m 0 min 2 min 0,0 UV-I 18 W/m 2,6 km/h (1 Bft)
15.10.2013 10:52 9,8 C 8,3 C 95 % 1007,5 hPa 0,4 l/m 0 min 2 min 0,0 UV-I 21 W/m 10,3 km/h (2 Bft)
15.10.2013 10:54 9,7 C 7,8 C 95 % 1007,4 hPa 0,6 l/m 0 min 2 min 0,0 UV-I 28 W/m 15,4 km/h (3 Bft)
15.10.2013 10:56 9,4 C 7,8 C 95 % 1007,3 hPa 0,0 l/m 0 min 2 min 0,0 UV-I 37 W/m 10,3 km/h (2 Bft)
15.10.2013 10:58 9,3 C 7,8 C 95 % 1007,3 hPa 0,2 l/m 0 min 2 min 0,0 UV-I 58 W/m 7,7 km/h (2 Bft)
15.10.2013 11:00 9,2 C 7,8 C 94 % 1007,4 hPa 0,0 l/m 0 min 2 min 0,0 UV-I 62 W/m 2,6 km/h (1 Bft)
15.10.2013 11:02 9,1 C 7,8 C 95 % 1007,3 hPa 0,0 l/m 0 min 2 min 0,0 UV-I 60 W/m 0,0 km/h (0 Bft)
15.10.2013 11:06 9,0 C 7,8 C 95 % 1007,3 hPa 0,2 l/m 0 min 2 min 0,0 UV-I 49 W/m 10,3 km/h (2 Bft)
15.10.2013 11:08 9,0 C 7,8 C 95 % 1007,5 hPa 0,0 l/m 0 min 2 min 0,0 UV-I 42 W/m 7,7 km/h (2 Bft)
15.10.2013 11:10 8,9 C 7,8 C 95 % 1007,4 hPa 0,2 l/m 0 min 2 min 0,0 UV-I 53 W/m 0,0 km/h (0 Bft)
15.10.2013 11:12 8,9 C 7,8 C 95 % 1007,5 hPa 0,0 l/m 0 min 2 min 0,0 UV-I 65 W/m 2,6 km/h (1 Bft)
15.10.2013 11:14 9,0 C 7,8 C 95 % 1007,4 hPa 0,0 l/m 0 min 2 min 0,0 UV-I 65 W/m 0,0 km/h (0 Bft)
15.10.2013 11:16 9,0 C 7,8 C 95 % 1007,5 hPa 0,0 l/m 0 min 0 min 0,0 UV-I 62 W/m 5,1 km/h (1 Bft)
15.10.2013 11:18 9,0 C 8,3 C 95 % 1007,4 hPa 0,0 l/m 0 min 0 min 0,0 UV-I 63 W/m 0,0 km/h (0 Bft)
15.10.2013 11:20 9,1 C 8,3 C 96 % 1007,3 hPa 0,0 l/m 0 min 0 min 0,0 UV-I 70 W/m 0,0 km/h (0 Bft)
15.10.2013 11:22 9,1 C 8,3 C 96 % 1007,3 hPa 0,0 l/m 0 min 0 min 0,0 UV-I 62 W/m 0,0 km/h (0 Bft)
15.10.2013 11:24 9,2 C 8,3 C 96 % 1007,4 hPa 0,0 l/m 0 min 2 min 0,0 UV-I 56 W/m 0,0 km/h (0 Bft)
15.10.2013 11:26 9,2 C 8,3 C 96 % 1007,4 hPa 0,0 l/m 0 min 2 min 0,0 UV-I 67 W/m 7,7 km/h (2 Bft)
15.10.2013 11:28 9,2 C 8,3 C 96 % 1007,4 hPa 0,0 l/m 0 min 2 min 0,0 UV-I 88 W/m 0,0 km/h (0 Bft)
15.10.2013 11:30 9,2 C 8,3 C 96 % 1007,3 hPa 0,0 l/m 0 min 2 min 0,0 UV-I 113 W/m 0,0 km/h (0 Bft)
15.10.2013 11:32 9,3 C 8,9 C 96 % 1007,3 hPa 0,0 l/m 0 min 2 min 0,0 UV-I 137 W/m 10,3 km/h (2 Bft)
15.10.2013 11:34 9,4 C 8,9 C 96 % 1007,3 hPa 0,0 l/m 0 min 2 min 0,0 UV-I 141 W/m 0,0 km/h (0 Bft)
15.10.2013 11:36 9,4 C 8,9 C 96 % 1007,3 hPa 0,0 l/m 0 min 2 min 0,0 UV-I 132 W/m 7,7 km/h (2 Bft)
15.10.2013 11:38 9,5 C 8,9 C 96 % 1007,3 hPa 0,0 l/m 0 min 0 min 0,0 UV-I 132 W/m 7,7 km/h (2 Bft)
15.10.2013 11:40 9,6 C 8,9 C 96 % 1007,3 hPa 0,0 l/m 0 min 0 min 0,0 UV-I 156 W/m 0,0 km/h (0 Bft)
15.10.2013 11:42 9,7 C 8,9 C 97 % 1007,3 hPa 0,0 l/m 0 min 0 min 0,0 UV-I 188 W/m 5,1 km/h (1 Bft)
15.10.2013 11:44 9,8 C 9,4 C 97 % 1007,3 hPa 0,0 l/m 0 min 2 min 0,0 UV-I 181 W/m 10,3 km/h (2 Bft)
15.10.2013 11:46 9,8 C 9,4 C 97 % 1007,3 hPa 0,0 l/m 0 min 2 min 0,0 UV-I 127 W/m 12,9 km/h (3 Bft)
15.10.2013 11:48 9,9 C 8,9 C 97 % 1007,3 hPa 0,0 l/m 0 min 0 min 0,0 UV-I 95 W/m 7,7 km/h (2 Bft)
15.10.2013 11:50 9,9 C 8,9 C 97 % 1007,4 hPa 0,0 l/m 0 min 0 min 0,0 UV-I 107 W/m 0,0 km/h (0 Bft)
15.10.2013 11:52 9,9 C 8,9 C 97 % 1007,4 hPa 0,0 l/m 0 min 0 min 0,0 UV-I 123 W/m 2,6 km/h (1 Bft)
15.10.2013 11:54 9,9 C 8,9 C 97 % 1007,3 hPa 0,0 l/m 0 min 2 min 0,0 UV-I 137 W/m 2,6 km/h (1 Bft)
15.10.2013 11:56 10,0 C 9,4 C 97 % 1007,4 hPa 0,0 l/m 0 min 2 min 0,0 UV-I 130 W/m 12,9 km/h (3 Bft)
15.10.2013 11:58 10,0 C 8,9 C 97 % 1007,4 hPa 0,0 l/m 0 min 2 min 0,0 UV-I 127 W/m 10,3 km/h (2 Bft)
15.10.2013 12:00 10,0 C 9,4 C 97 % 1007,4 hPa 0,0 l/m 0 min 2 min 0,0 UV-I 127 W/m 0,0 km/h (0 Bft)
15.10.2013 12:02 10,1 C 9,4 C 97 % 1007,3 hPa 0,2 l/m 0 min 2 min 0,0 UV-I 132 W/m 0,0 km/h (0 Bft)
15.10.2013 12:06 10,2 C 9,4 C 97 % 1007,3 hPa 0,0 l/m 0 min 0 min 0,0 UV-I 199 W/m 10,3 km/h (2 Bft)
15.10.2013 12:08 10,2 C 9,4 C 97 % 1007,3 hPa 0,0 l/m 0 min 0 min 0,0 UV-I 218 W/m 7,7 km/h (2 Bft)
15.10.2013 12:10 10,4 C 10,0 C 97 % 1007,3 hPa 0,0 l/m 0 min 0 min 0,0 UV-I 192 W/m 2,6 km/h (1 Bft)
15.10.2013 12:12 10,4 C 10,0 C 97 % 1007,3 hPa 0,0 l/m 0 min 0 min 0,0 UV-I 174 W/m 5,1 km/h (1 Bft)
15.10.2013 12:14 10,4 C 9,4 C 97 % 1007,4 hPa 0,0 l/m 0 min 0 min 0,0 UV-I 151 W/m 10,3 km/h (2 Bft)
15.10.2013 12:16 10,4 C 9,4 C 97 % 1007,4 hPa 0,0 l/m 0 min 2 min 0,0 UV-I 127 W/m 12,9 km/h (3 Bft)
15.10.2013 12:18 10,4 C 9,4 C 96 % 1007,5 hPa 0,0 l/m 0 min 0 min 0,0 UV-I 109 W/m 12,9 km/h (3 Bft)
15.10.2013 12:20 10,4 C 9,4 C 96 % 1007,4 hPa 0,0 l/m 0 min 0 min 0,0 UV-I 107 W/m 2,6 km/h (1 Bft)
15.10.2013 12:22 10,4 C 9,4 C 96 % 1007,4 hPa 0,0 l/m 0 min 0 min 0,0 UV-I 104 W/m 5,1 km/h (1 Bft)
15.10.2013 12:24 10,4 C 8,9 C 96 % 1007,5 hPa 0,0 l/m 0 min 0 min 0,0 UV-I 88 W/m 7,7 km/h (2 Bft)
15.10.2013 12:26 10,3 C 8,9 C 96 % 1007,5 hPa 0,0 l/m 0 min 0 min 0,0 UV-I 72 W/m 10,3 km/h (2 Bft)
15.10.2013 12:28 10,3 C 8,9 C 96 % 1007,5 hPa 0,0 l/m 0 min 0 min 0,0 UV-I 60 W/m 2,6 km/h (1 Bft)
15.10.2013 12:30 10,3 C 8,9 C 95 % 1007,5 hPa 0,0 l/m 0 min 0 min 0,0 UV-I 53 W/m 7,7 km/h (2 Bft)
15.10.2013 12:32 10,2 C 8,9 C 95 % 1007,5 hPa 0,0 l/m 0 min 0 min 0,0 UV-I 44 W/m 7,7 km/h (2 Bft)
15.10.2013 12:34 10,2 C 8,9 C 95 % 1007,5 hPa 0,0 l/m 0 min 0 min 0,0 UV-I 40 W/m 0,0 km/h (0 Bft)
15.10.2013 12:36 10,2 C 8,9 C 95 % 1007,5 hPa 0,0 l/m 0 min 0 min 0,0 UV-I 37 W/m 10,3 km/h (2 Bft)
15.10.2013 12:38 10,1 C 8,9 C 95 % 1007,6 hPa 0,0 l/m 0 min 0 min 0,0 UV-I 35 W/m 5,1 km/h (1 Bft)
15.10.2013 12:40 10,1 C 8,3 C 95 % 1007,5 hPa 0,0 l/m 0 min 0 min 0,0 UV-I 28 W/m 10,3 km/h (2 Bft)
15.10.2013 12:42 10,0 C 8,3 C 95 % 1007,5 hPa 0,0 l/m 0 min 2 min 0,0 UV-I 25 W/m 2,6 km/h (1 Bft)
15.10.2013 12:44 10,0 C 8,3 C 95 % 1007,4 hPa 0,0 l/m 0 min 2 min 0,0 UV-I 26 W/m 5,1 km/h (1 Bft)
15.10.2013 12:46 9,9 C 8,3 C 95 % 1007,5 hPa 0,0 l/m 0 min 0 min 0,0 UV-I 26 W/m 0,0 km/h (0 Bft)
15.10.2013 12:48 9,9 C 8,3 C 95 % 1007,5 hPa 0,0 l/m 0 min 0 min 0,0 UV-I 21 W/m 5,1 km/h (1 Bft)
15.10.2013 12:50 9,9 C 8,3 C 94 % 1007,5 hPa 0,0 l/m 0 min 0 min 0,0 UV-I 18 W/m 5,1 km/h (1 Bft)
15.10.2013 12:52 9,8 C 8,3 C 94 % 1007,6 hPa 0,0 l/m 0 min 2 min 0,0 UV-I 25 W/m 7,7 km/h (2 Bft)
15.10.2013 12:54 9,8 C 8,3 C 94 % 1007,5 hPa 0,0 l/m 0 min 2 min 0,0 UV-I 47 W/m 5,1 km/h (1 Bft)
15.10.2013 12:56 9,8 C 8,3 C 94 % 1007,5 hPa 0,0 l/m 0 min 2 min 0,0 UV-I 56 W/m 7,7 km/h (2 Bft)
15.10.2013 12:58 9,8 C 8,3 C 95 % 1007,5 hPa 0,0 l/m 0 min 2 min 0,0 UV-I 51 W/m 0,0 km/h (0 Bft)
15.10.2013 13:00 9,8 C 8,3 C 95 % 1007,5 hPa 0,2 l/m 0 min 2 min 0,0 UV-I 39 W/m 7,7 km/h (2 Bft)
15.10.2013 13:02 9,8 C 8,3 C 95 % 1007,5 hPa 0,0 l/m 0 min 2 min 0,0 UV-I 35 W/m 5,1 km/h (1 Bft)
15.10.2013 13:06 9,7 C 8,3 C 95 % 1007,5 hPa 0,2 l/m 0 min 2 min 0,0 UV-I 39 W/m 0,0 km/h (0 Bft)
15.10.2013 13:08 9,7 C 8,3 C 95 % 1007,5 hPa 0,0 l/m 0 min 2 min 0,0 UV-I 42 W/m 5,1 km/h (1 Bft)
15.10.2013 13:10 9,7 C 8,3 C 95 % 1007,4 hPa 0,0 l/m 0 min 2 min 0,0 UV-I 51 W/m 2,6 km/h (1 Bft)
15.10.2013 13:12 9,7 C 8,9 C 95 % 1007,5 hPa 0,0 l/m 0 min 2 min 0,0 UV-I 53 W/m 2,6 km/h (1 Bft)
15.10.2013 13:14 9,7 C 8,3 C 95 % 1007,5 hPa 0,0 l/m 0 min 2 min 0,0 UV-I 42 W/m 7,7 km/h (2 Bft)
15.10.2013 13:16 9,6 C 8,3 C 95 % 1007,5 hPa 0,0 l/m 0 min 2 min 0,0 UV-I 39 W/m 10,3 km/h (2 Bft)
15.10.2013 13:18 9,6 C 8,3 C 95 % 1007,5 hPa 0,0 l/m 0 min 2 min 0,0 UV-I 33 W/m 12,9 km/h (3 Bft)
15.10.2013 13:20 9,6 C 8,3 C 96 % 1007,4 hPa 0,0 l/m 0 min 2 min 0,0 UV-I 39 W/m 12,9 km/h (3 Bft)
15.10.2013 13:22 9,5 C 8,3 C 96 % 1007,4 hPa 0,0 l/m 0 min 2 min 0,0 UV-I 51 W/m 0,0 km/h (0 Bft)
15.10.2013 13:24 9,5 C 8,3 C 96 % 1007,3 hPa 0,0 l/m 0 min 0 min 0,0 UV-I 81 W/m 15,4 km/h (3 Bft)
15.10.2013 13:26 9,5 C 8,3 C 96 % 1007,3 hPa 0,0 l/m 0 min 0 min 0,0 UV-I 109 W/m 0,0 km/h (0 Bft)
15.10.2013 13:28 9,6 C 8,9 C 96 % 1007,2 hPa 0,0 l/m 0 min 0 min 0,0 UV-I 144 W/m 0,0 km/h (0 Bft)
15.10.2013 13:30 9,6 C 8,9 C 96 % 1007,2 hPa 0,0 l/m 0 min 0 min 0,0 UV-I 155 W/m 5,1 km/h (1 Bft)
15.10.2013 13:32 9,7 C 8,9 C 96 % 1007,2 hPa 0,0 l/m 0 min 0 min 0,0 UV-I 148 W/m 10,3 km/h (2 Bft)
15.10.2013 13:34 9,7 C 8,9 C 96 % 1007,3 hPa 0,0 l/m 0 min 0 min 0,0 UV-I 149 W/m 7,7 km/h (2 Bft)
15.10.2013 13:36 9,8 C 8,9 C 96 % 1007,2 hPa 0,0 l/m 0 min 0 min 0,0 UV-I 142 W/m 0,0 km/h (0 Bft)
15.10.2013 13:38 9,8 C 9,4 C 96 % 1007,1 hPa 0,0 l/m 0 min 0 min 0,0 UV-I 134 W/m 2,6 km/h (1 Bft)
15.10.2013 13:40 9,8 C 8,9 C 96 % 1007,2 hPa 0,0 l/m 0 min 0 min 0,0 UV-I 123 W/m 15,4 km/h (3 Bft)
15.10.2013 13:42 9,9 C 8,9 C 96 % 1007,2 hPa 0,0 l/m 0 min 0 min 0,0 UV-I 105 W/m 2,6 km/h (1 Bft)
15.10.2013 13:44 9,9 C 8,9 C 96 % 1007,2 hPa 0,0 l/m 0 min 0 min 0,0 UV-I 97 W/m 7,7 km/h (2 Bft)
15.10.2013 13:46 9,9 C 8,9 C 96 % 1007,1 hPa 0,0 l/m 0 min 0 min 0,0 UV-I 97 W/m 5,1 km/h (1 Bft)
15.10.2013 13:48 9,9 C 8,9 C 96 % 1007,2 hPa 0,0 l/m 0 min 2 min 0,0 UV-I 111 W/m 7,7 km/h (2 Bft)
15.10.2013 13:50 9,9 C 8,9 C 96 % 1007,2 hPa 0,0 l/m 0 min 2 min 0,0 UV-I 109 W/m 7,7 km/h (2 Bft)
15.10.2013 13:52 9,9 C 8,9 C 96 % 1007,2 hPa 0,0 l/m 0 min 2 min 0,0 UV-I 109 W/m 7,7 km/h (2 Bft)
15.10.2013 13:54 10,0 C 8,9 C 96 % 1007,2 hPa 0,0 l/m 0 min 0 min 0,0 UV-I 128 W/m 2,6 km/h (1 Bft)
15.10.2013 13:56 10,1 C 9,4 C 96 % 1007,2 hPa 0,0 l/m 0 min 0 min 0,0 UV-I 169 W/m 0,0 km/h (0 Bft)
15.10.2013 13:58 10,2 C 9,4 C 96 % 1007,2 hPa 0,0 l/m 0 min 0 min 0,0 UV-I 156 W/m 12,9 km/h (3 Bft)
15.10.2013 14:00 10,2 C 9,4 C 96 % 1007,2 hPa 0,0 l/m 0 min 0 min 0,0 UV-I 141 W/m 0,0 km/h (0 Bft)
15.10.2013 14:02 10,2 C 9,4 C 96 % 1007,3 hPa 0,0 l/m 0 min 0 min 0,0 UV-I 123 W/m 15,4 km/h (3 Bft)
15.10.2013 14:06 10,3 C 9,4 C 96 % 1007,2 hPa 0,0 l/m 0 min 0 min 0,0 UV-I 158 W/m 2,6 km/h (1 Bft)
15.10.2013 14:08 10,3 C 9,4 C 96 % 1007,3 hPa 0,0 l/m 0 min 0 min 0,0 UV-I 118 W/m 15,4 km/h (3 Bft)
15.10.2013 14:10 10,3 C 8,9 C 96 % 1007,3 hPa 0,0 l/m 0 min 0 min 0,0 UV-I 172 W/m 15,4 km/h (3 Bft)
15.10.2013 14:12 10,3 C 9,4 C 96 % 1007,4 hPa 0,0 l/m 0 min 0 min 0,0 UV-I 197 W/m 10,3 km/h (2 Bft)
15.10.2013 14:14 10,4 C 9,4 C 95 % 1007,3 hPa 0,0 l/m 0 min 0 min 0,0 UV-I 237 W/m 10,3 km/h (2 Bft)
15.10.2013 14:16 10,4 C 9,4 C 95 % 1007,3 hPa 0,0 l/m 0 min 0 min 0,0 UV-I 105 W/m 5,1 km/h (1 Bft)
15.10.2013 14:18 10,5 C 9,4 C 95 % 1007,3 hPa 0,0 l/m 0 min 0 min 0,0 UV-I 93 W/m 0,0 km/h (0 Bft)
15.10.2013 14:20 10,5 C 9,4 C 95 % 1007,3 hPa 0,0 l/m 0 min 0 min 0,0 UV-I 81 W/m 5,1 km/h (1 Bft)
15.10.2013 14:22 10,4 C 8,9 C 95 % 1007,3 hPa 0,0 l/m 0 min 0 min 0,0 UV-I 63 W/m 18,0 km/h (3 Bft)
15.10.2013 14:24 10,4 C 8,9 C 95 % 1007,4 hPa 0,0 l/m 0 min 0 min 0,0 UV-I 62 W/m 18,0 km/h (3 Bft)
15.10.2013 14:26 10,3 C 8,9 C 94 % 1007,4 hPa 0,0 l/m 0 min 0 min 0,0 UV-I 74 W/m 12,9 km/h (3 Bft)
15.10.2013 14:28 10,3 C 8,9 C 94 % 1007,4 hPa 0,0 l/m 0 min 0 min 0,0 UV-I 102 W/m 7,7 km/h (2 Bft)
15.10.2013 14:30 10,3 C 8,9 C 94 % 1007,3 hPa 0,0 l/m 0 min 0 min 0,0 UV-I 98 W/m 12,9 km/h (3 Bft)
15.10.2013 14:32 10,2 C 8,9 C 94 % 1007,4 hPa 0,0 l/m 0 min 0 min 0,0 UV-I 100 W/m 18,0 km/h (3 Bft)
15.10.2013 14:34 10,2 C 8,9 C 94 % 1007,4 hPa 0,0 l/m 0 min 0 min 0,0 UV-I 84 W/m 18,0 km/h (3 Bft)
15.10.2013 14:36 10,2 C 8,9 C 94 % 1007,3 hPa 0,0 l/m 0 min 0 min 0,0 UV-I 81 W/m 18,0 km/h (3 Bft)
15.10.2013 14:38 10,2 C 8,9 C 94 % 1007,3 hPa 0,0 l/m 0 min 0 min 0,0 UV-I 74 W/m 5,1 km/h (1 Bft)
15.10.2013 14:40 10,1 C 8,9 C 94 % 1007,4 hPa 0,0 l/m 0 min 0 min 0,0 UV-I 72 W/m 2,6 km/h (1 Bft)
15.10.2013 14:42 10,1 C 8,9 C 94 % 1007,3 hPa 0,0 l/m 0 min 0 min 0,0 UV-I 67 W/m 0,0 km/h (0 Bft)
15.10.2013 14:44 10,1 C 8,9 C 94 % 1007,3 hPa 0,0 l/m 0 min 0 min 0,0 UV-I 63 W/m 18,0 km/h (3 Bft)
15.10.2013 14:46 10,1 C 8,9 C 94 % 1007,4 hPa 0,0 l/m 0 min 0 min 0,0 UV-I 62 W/m 7,7 km/h (2 Bft)
15.10.2013 14:48 10,1 C 8,9 C 94 % 1007,4 hPa 0,0 l/m 0 min 0 min 0,0 UV-I 60 W/m 0,0 km/h (0 Bft)
15.10.2013 14:50 10,0 C 8,9 C 94 % 1007,4 hPa 0,0 l/m 0 min 0 min 0,0 UV-I 60 W/m 7,7 km/h (2 Bft)
15.10.2013 14:52 10,0 C 8,9 C 94 % 1007,3 hPa 0,0 l/m 0 min 0 min 0,0 UV-I 69 W/m 2,6 km/h (1 Bft)
15.10.2013 14:54 10,0 C 8,9 C 94 % 1007,3 hPa 0,0 l/m 0 min 0 min 0,0 UV-I 62 W/m 5,1 km/h (1 Bft)
15.10.2013 14:56 10,0 C 8,9 C 94 % 1007,4 hPa 0,0 l/m 0 min 0 min 0,0 UV-I 54 W/m 18,0 km/h (3 Bft)
15.10.2013 14:58 10,0 C 8,9 C 94 % 1007,4 hPa 0,0 l/m 0 min 0 min 0,0 UV-I 53 W/m 5,1 km/h (1 Bft)
15.10.2013 15:00 10,0 C 8,9 C 94 % 1007,3 hPa 0,0 l/m 0 min 0 min 0,0 UV-I 54 W/m 10,3 km/h (2 Bft)
15.10.2013 15:02 9,9 C 8,9 C 94 % 1007,3 hPa 0,0 l/m 0 min 0 min 0,0 UV-I 62 W/m 15,4 km/h (3 Bft)
15.10.2013 15:06 9,9 C 8,9 C 94 % 1007,2 hPa 0,0 l/m 0 min 0 min 0,0 UV-I 63 W/m 10,3 km/h (2 Bft)
15.10.2013 15:08 9,9 C 8,9 C 94 % 1007,2 hPa 0,0 l/m 0 min 0 min 0,0 UV-I 53 W/m 10,3 km/h (2 Bft)
15.10.2013 15:10 9,9 C 8,9 C 94 % 1007,2 hPa 0,0 l/m 0 min 0 min 0,0 UV-I 49 W/m 7,7 km/h (2 Bft)
15.10.2013 15:12 9,9 C 8,3 C 94 % 1007,2 hPa 0,0 l/m 0 min 0 min 0,0 UV-I 56 W/m 10,3 km/h (2 Bft)
15.10.2013 15:14 10,0 C 8,9 C 94 % 1007,2 hPa 0,0 l/m 0 min 0 min 0,0 UV-I 58 W/m 0,0 km/h (0 Bft)
15.10.2013 15:16 10,0 C 8,9 C 94 % 1007,2 hPa 0,0 l/m 0 min 0 min 0,0 UV-I 42 W/m 10,3 km/h (2 Bft)
15.10.2013 15:18 10,0 C 8,3 C 94 % 1007,2 hPa 0,0 l/m 0 min 2 min 0,0 UV-I 40 W/m 5,1 km/h (1 Bft)
15.10.2013 15:20 10,0 C 8,9 C 94 % 1007,2 hPa 0,0 l/m 0 min 2 min 0,0 UV-I 42 W/m 2,6 km/h (1 Bft)
15.10.2013 15:22 9,9 C 8,9 C 94 % 1007,2 hPa 0,0 l/m 0 min 2 min 0,0 UV-I 53 W/m 5,1 km/h (1 Bft)
15.10.2013 15:24 10,0 C 8,9 C 94 % 1007,2 hPa 0,0 l/m 0 min 2 min 0,0 UV-I 58 W/m 10,3 km/h (2 Bft)
15.10.2013 15:26 9,9 C 8,9 C 94 % 1007,2 hPa 0,0 l/m 0 min 2 min 0,0 UV-I 60 W/m 7,7 km/h (2 Bft)
15.10.2013 15:28 9,9 C 8,9 C 94 % 1007,2 hPa 0,2 l/m 0 min 2 min 0,0 UV-I 60 W/m 10,3 km/h (2 Bft)
15.10.2013 15:30 9,9 C 8,9 C 95 % 1007,2 hPa 0,0 l/m 0 min 2 min 0,0 UV-I 53 W/m 2,6 km/h (1 Bft)
15.10.2013 15:32 9,9 C 8,9 C 94 % 1007,2 hPa 0,0 l/m 0 min 2 min 0,0 UV-I 37 W/m 7,7 km/h (2 Bft)
15.10.2013 15:34 9,9 C 8,3 C 94 % 1007,3 hPa 0,0 l/m 0 min 2 min 0,0 UV-I 32 W/m 0,0 km/h (0 Bft)
15.10.2013 15:36 9,8 C 8,3 C 94 % 1007,3 hPa 0,2 l/m 0 min 2 min 0,0 UV-I 30 W/m 12,9 km/h (3 Bft)
15.10.2013 15:38 9,8 C 8,3 C 94 % 1007,3 hPa 0,0 l/m 0 min 2 min 0,0 UV-I 32 W/m 10,3 km/h (2 Bft)
15.10.2013 15:40 9,7 C 8,3 C 94 % 1007,2 hPa 0,0 l/m 0 min 2 min 0,0 UV-I 35 W/m 10,3 km/h (2 Bft)
15.10.2013 15:42 9,7 C 8,3 C 95 % 1007,2 hPa 0,0 l/m 0 min 2 min 0,0 UV-I 40 W/m 7,7 km/h (2 Bft)
15.10.2013 15:44 9,6 C 8,3 C 95 % 1007,3 hPa 0,0 l/m 0 min 2 min 0,0 UV-I 49 W/m 12,9 km/h (3 Bft)
15.10.2013 15:46 9,6 C 8,3 C 95 % 1007,3 hPa 0,2 l/m 0 min 2 min 0,0 UV-I 56 W/m 0,0 km/h (0 Bft)
15.10.2013 15:48 9,6 C 8,3 C 95 % 1007,3 hPa 0,0 l/m 0 min 2 min 0,0 UV-I 60 W/m 0,0 km/h (0 Bft)
15.10.2013 15:50 9,6 C 8,3 C 95 % 1007,3 hPa 0,0 l/m 0 min 2 min 0,0 UV-I 63 W/m 10,3 km/h (2 Bft)
15.10.2013 15:52 9,6 C 8,3 C 95 % 1007,2 hPa 0,0 l/m 0 min 2 min 0,0 UV-I 69 W/m 0,0 km/h (0 Bft)
15.10.2013 15:54 9,7 C 8,9 C 95 % 1007,2 hPa 0,0 l/m 0 min 2 min 0,0 UV-I 84 W/m 0,0 km/h (0 Bft)
15.10.2013 15:56 9,7 C 8,9 C 95 % 1007,3 hPa 0,0 l/m 0 min 0 min 0,0 UV-I 104 W/m 2,6 km/h (1 Bft)
15.10.2013 15:58 9,7 C 8,9 C 95 % 1007,3 hPa 0,0 l/m 0 min 0 min 0,0 UV-I 114 W/m 0,0 km/h (0 Bft)
15.10.2013 16:00 9,8 C 8,9 C 95 % 1007,3 hPa 0,0 l/m 0 min 0 min 0,0 UV-I 132 W/m 0,0 km/h (0 Bft)
15.10.2013 16:02 9,8 C 8,9 C 95 % 1007,3 hPa 0,0 l/m 0 min 0 min 0,0 UV-I 137 W/m 10,3 km/h (2 Bft)
15.10.2013 16:06 9,9 C 8,9 C 96 % 1007,3 hPa 0,0 l/m 0 min 0 min 0,0 UV-I 105 W/m 2,6 km/h (1 Bft)
15.10.2013 16:08 9,9 C 8,9 C 96 % 1007,3 hPa 0,0 l/m 0 min 2 min 0,0 UV-I 113 W/m 10,3 km/h (2 Bft)
15.10.2013 16:10 10,0 C 8,9 C 96 % 1007,3 hPa 0,0 l/m 0 min 0 min 0,0 UV-I 137 W/m 5,1 km/h (1 Bft)
15.10.2013 16:12 10,1 C 9,4 C 96 % 1007,3 hPa 0,0 l/m 0 min 2 min 0,0 UV-I 156 W/m 10,3 km/h (2 Bft)
15.10.2013 16:14 10,1 C 9,4 C 96 % 1007,3 hPa 0,0 l/m 0 min 0 min 0,0 UV-I 178 W/m 7,7 km/h (2 Bft)
15.10.2013 16:16 10,2 C 9,4 C 96 % 1007,2 hPa 0,0 l/m 0 min 0 min 0,0 UV-I 148 W/m 7,7 km/h (2 Bft)
15.10.2013 16:18 10,2 C 9,4 C 96 % 1007,2 hPa 0,0 l/m 0 min 0 min 0,0 UV-I 116 W/m 0,0 km/h (0 Bft)
15.10.2013 16:20 10,2 C 9,4 C 96 % 1007,2 hPa 0,0 l/m 0 min 0 min 0,0 UV-I 74 W/m 10,3 km/h (2 Bft)
15.10.2013 16:22 10,2 C 8,9 C 96 % 1007,2 hPa 0,0 l/m 0 min 0 min 0,0 UV-I 67 W/m 7,7 km/h (2 Bft)
15.10.2013 16:24 10,2 C 8,9 C 95 % 1007,1 hPa 0,0 l/m 0 min 0 min 0,0 UV-I 77 W/m 0,0 km/h (0 Bft)
15.10.2013 16:26 10,2 C 8,9 C 95 % 1007,2 hPa 0,0 l/m 0 min 0 min 0,0 UV-I 90 W/m 7,7 km/h (2 Bft)
15.10.2013 16:28 10,2 C 8,9 C 95 % 1007,1 hPa 0,0 l/m 0 min 0 min 0,0 UV-I 102 W/m 0,0 km/h (0 Bft)
15.10.2013 16:30 10,2 C 8,9 C 95 % 1007,1 hPa 0,0 l/m 0 min 0 min 0,0 UV-I 97 W/m 2,6 km/h (1 Bft)
15.10.2013 16:32 10,2 C 8,9 C 95 % 1007,0 hPa 0,0 l/m 0 min 0 min 0,0 UV-I 105 W/m 7,7 km/h (2 Bft)
15.10.2013 16:34 10,2 C 8,9 C 95 % 1007,0 hPa 0,0 l/m 0 min 0 min 0,0 UV-I 120 W/m 0,0 km/h (0 Bft)
15.10.2013 16:36 10,3 C 9,4 C 95 % 1007,0 hPa 0,0 l/m 0 min 0 min 0,0 UV-I 130 W/m 0,0 km/h (0 Bft)
15.10.2013 16:38 10,3 C 9,4 C 95 % 1007,0 hPa 0,0 l/m 2 min 0 min 0,0 UV-I 232 W/m 2,6 km/h (1 Bft)
15.10.2013 16:40 10,4 C 9,4 C 95 % 1007,0 hPa 0,0 l/m 2 min 0 min 0,0 UV-I 281 W/m 0,0 km/h (0 Bft)
15.10.2013 16:42 10,5 C 9,4 C 95 % 1006,9 hPa 0,0 l/m 2 min 0 min 0,0 UV-I 255 W/m 2,6 km/h (1 Bft)
15.10.2013 16:44 10,6 C 9,4 C 95 % 1006,9 hPa 0,0 l/m 2 min 0 min 0,0 UV-I 202 W/m 0,0 km/h (0 Bft)
15.10.2013 16:46 10,7 C 9,4 C 95 % 1006,9 hPa 0,0 l/m 2 min 0 min 0,0 UV-I 149 W/m 0,0 km/h (0 Bft)
15.10.2013 16:48 10,7 C 9,4 C 95 % 1007,0 hPa 0,0 l/m 0 min 0 min 0,0 UV-I 109 W/m 7,7 km/h (2 Bft)
15.10.2013 16:50 10,7 C 9,4 C 94 % 1006,9 hPa 0,0 l/m 0 min 0 min 0,0 UV-I 123 W/m 2,6 km/h (1 Bft)
15.10.2013 16:52 10,7 C 9,4 C 94 % 1006,9 hPa 0,0 l/m 0 min 0 min 0,0 UV-I 135 W/m 0,0 km/h (0 Bft)
15.10.2013 16:54 10,8 C 9,4 C 94 % 1006,9 hPa 0,0 l/m 2 min 0 min 0,0 UV-I 176 W/m 0,0 km/h (0 Bft)
15.10.2013 16:56 10,8 C 9,4 C 94 % 1006,9 hPa 0,0 l/m 2 min 0 min 0,0 UV-I 251 W/m 0,0 km/h (0 Bft)
15.10.2013 16:58 11,0 C 9,4 C 94 % 1006,9 hPa 0,0 l/m 2 min 0 min 0,0 UV-I 239 W/m 0,0 km/h (0 Bft)
15.10.2013 17:00 11,1 C 9,4 C 94 % 1006,7 hPa 0,0 l/m 2 min 0 min 0,0 UV-I 220 W/m 2,6 km/h (1 Bft)
15.10.2013 17:02 11,1 C 9,4 C 94 % 1006,8 hPa 0,0 l/m 2 min 0 min 0,0 UV-I 207 W/m 5,1 km/h (1 Bft)
15.10.2013 17:06 11,2 C 9,4 C 93 % 1006,8 hPa 0,0 l/m 0 min 0 min 0,0 UV-I 93 W/m 5,1 km/h (1 Bft)
15.10.2013 17:08 11,1 C 9,4 C 93 % 1006,9 hPa 0,0 l/m 0 min 0 min 0,0 UV-I 88 W/m 0,0 km/h (0 Bft)
15.10.2013 17:10 11,1 C 9,4 C 93 % 1006,8 hPa 0,0 l/m 0 min 0 min 0,0 UV-I 84 W/m 2,6 km/h (1 Bft)
15.10.2013 17:12 11,0 C 9,4 C 93 % 1006,9 hPa 0,0 l/m 0 min 0 min 0,0 UV-I 72 W/m 7,7 km/h (2 Bft)
15.10.2013 17:14 10,9 C 9,4 C 92 % 1006,9 hPa 0,0 l/m 0 min 0 min 0,0 UV-I 70 W/m 10,3 km/h (2 Bft)
15.10.2013 17:16 10,9 C 8,9 C 92 % 1006,7 hPa 0,0 l/m 0 min 0 min 0,0 UV-I 72 W/m 5,1 km/h (1 Bft)
15.10.2013 17:18 10,9 C 9,4 C 92 % 1006,8 hPa 0,0 l/m 0 min 0 min 0,0 UV-I 79 W/m 0,0 km/h (0 Bft)
15.10.2013 17:20 10,9 C 9,4 C 92 % 1006,8 hPa 0,0 l/m 0 min 0 min 0,0 UV-I 70 W/m 0,0 km/h (0 Bft)
15.10.2013 17:22 10,9 C 9,4 C 92 % 1006,8 hPa 0,0 l/m 0 min 0 min 0,0 UV-I 62 W/m 5,1 km/h (1 Bft)
15.10.2013 17:24 10,9 C 9,4 C 92 % 1006,9 hPa 0,0 l/m 0 min 0 min 0,0 UV-I 63 W/m 12,9 km/h (3 Bft)
15.10.2013 17:26 10,9 C 9,4 C 92 % 1006,9 hPa 0,0 l/m 0 min 0 min 0,0 UV-I 67 W/m 5,1 km/h (1 Bft)
15.10.2013 17:28 10,9 C 9,4 C 92 % 1006,9 hPa 0,0 l/m 0 min 0 min 0,0 UV-I 76 W/m 0,0 km/h (0 Bft)
15.10.2013 17:30 10,9 C 9,4 C 92 % 1006,9 hPa 0,0 l/m 2 min 0 min 0,0 UV-I 97 W/m 0,0 km/h (0 Bft)
15.10.2013 17:32 10,9 C 9,4 C 92 % 1006,8 hPa 0,0 l/m 0 min 0 min 0,0 UV-I 81 W/m 0,0 km/h (0 Bft)
15.10.2013 17:34 11,0 C 9,4 C 92 % 1006,7 hPa 0,0 l/m 0 min 0 min 0,0 UV-I 72 W/m 2,6 km/h (1 Bft)
15.10.2013 17:36 11,0 C 9,4 C 92 % 1006,8 hPa 0,0 l/m 0 min 0 min 0,0 UV-I 79 W/m 0,0 km/h (0 Bft)
15.10.2013 17:38 11,0 C 9,4 C 92 % 1006,8 hPa 0,0 l/m 0 min 0 min 0,0 UV-I 70 W/m 0,0 km/h (0 Bft)
15.10.2013 17:40 11,0 C 9,4 C 92 % 1006,8 hPa 0,0 l/m 0 min 0 min 0,0 UV-I 60 W/m 0,0 km/h (0 Bft)
15.10.2013 17:42 11,0 C 9,4 C 92 % 1006,7 hPa 0,0 l/m 0 min 0 min 0,0 UV-I 49 W/m 0,0 km/h (0 Bft)
15.10.2013 17:44 11,0 C 9,4 C 92 % 1006,8 hPa 0,0 l/m 0 min 0 min 0,0 UV-I 46 W/m 0,0 km/h (0 Bft)
15.10.2013 17:46 10,9 C 9,4 C 92 % 1006,8 hPa 0,0 l/m 0 min 0 min 0,0 UV-I 42 W/m 2,6 km/h (1 Bft)
15.10.2013 17:48 11,0 C 9,4 C 95 % 1006,8 hPa 0,0 l/m 0 min 0 min 0,0 UV-I 47 W/m 5,1 km/h (1 Bft)
15.10.2013 17:50 10,9 C 8,9 C 92 % 1006,7 hPa 0,0 l/m 0 min 0 min 0,0 UV-I 42 W/m 2,6 km/h (1 Bft)
15.10.2013 17:52 10,9 C 8,9 C 92 % 1006,7 hPa 0,0 l/m 0 min 0 min 0,0 UV-I 33 W/m 7,7 km/h (2 Bft)
15.10.2013 17:54 10,9 C 8,9 C 91 % 1006,7 hPa 0,0 l/m 0 min 0 min 0,0 UV-I 21 W/m 2,6 km/h (1 Bft)
15.10.2013 17:56 10,9 C 8,9 C 91 % 1006,7 hPa 0,0 l/m 0 min 0 min 0,0 UV-I 18 W/m 7,7 km/h (2 Bft)
15.10.2013 17:58 10,9 C 8,9 C 91 % 1006,7 hPa 0,0 l/m 0 min 0 min 0,0 UV-I 19 W/m 5,1 km/h (1 Bft)
15.10.2013 18:00 10,9 C 8,9 C 90 % 1006,7 hPa 0,0 l/m 0 min 0 min 0,0 UV-I 33 W/m 5,1 km/h (1 Bft)
15.10.2013 18:02 10,9 C 8,9 C 90 % 1006,7 hPa 0,0 l/m 0 min 0 min 0,0 UV-I 35 W/m 18,0 km/h (3 Bft)
15.10.2013 18:06 10,9 C 8,9 C 90 % 1006,6 hPa 0,0 l/m 0 min 0 min 0,0 UV-I 35 W/m 5,1 km/h (1 Bft)
15.10.2013 18:08 10,9 C 8,9 C 90 % 1006,6 hPa 0,0 l/m 0 min 0 min 0,0 UV-I 37 W/m 5,1 km/h (1 Bft)
15.10.2013 18:10 10,9 C 8,9 C 90 % 1006,6 hPa 0,0 l/m 0 min 0 min 0,0 UV-I 28 W/m 0,0 km/h (0 Bft)
15.10.2013 18:12 10,9 C 8,9 C 90 % 1006,7 hPa 0,0 l/m 0 min 0 min 0,0 UV-I 23 W/m 10,3 km/h (2 Bft)
15.10.2013 18:14 10,8 C 8,9 C 90 % 1006,7 hPa 0,0 l/m 0 min 0 min 0,0 UV-I 18 W/m 5,1 km/h (1 Bft)
15.10.2013 18:16 10,8 C 8,9 C 90 % 1006,7 hPa 0,0 l/m 0 min 0 min 0,0 UV-I 14 W/m 10,3 km/h (2 Bft)
15.10.2013 18:18 10,8 C 8,9 C 90 % 1006,7 hPa 0,0 l/m 0 min 0 min 0,0 UV-I 12 W/m 0,0 km/h (0 Bft)
15.10.2013 18:20 10,8 C 8,9 C 90 % 1006,8 hPa 0,0 l/m 0 min 0 min 0,0 UV-I 11 W/m 0,0 km/h (0 Bft)
15.10.2013 18:22 10,7 C 8,9 C 91 % 1006,8 hPa 0,0 l/m 0 min 0 min 0,0 UV-I 11 W/m 0,0 km/h (0 Bft)
15.10.2013 18:24 10,7 C 8,9 C 91 % 1006,7 hPa 0,0 l/m 0 min 0 min 0,0 UV-I 9 W/m 0,0 km/h (0 Bft)
15.10.2013 18:26 10,7 C 8,9 C 91 % 1006,7 hPa 0,0 l/m 0 min 0 min 0,0 UV-I 9 W/m 0,0 km/h (0 Bft)
15.10.2013 18:28 10,6 C 8,9 C 91 % 1006,8 hPa 0,0 l/m 0 min 0 min 0,0 UV-I 5 W/m 0,0 km/h (0 Bft)
15.10.2013 18:30 10,6 C 8,9 C 91 % 1006,9 hPa 0,0 l/m 0 min 0 min 0,0 UV-I 5 W/m 2,6 km/h (1 Bft)
15.10.2013 18:32 10,6 C 8,9 C 91 % 1006,9 hPa 0,0 l/m 0 min 0 min 0,0 UV-I 0 W/m 0,0 km/h (0 Bft)
15.10.2013 18:34 10,5 C 8,9 C 91 % 1006,9 hPa 0,0 l/m 0 min 0 min 0,0 UV-I 0 W/m 0,0 km/h (0 Bft)
15.10.2013 18:36 10,5 C 8,9 C 92 % 1006,9 hPa 0,0 l/m 0 min 0 min 0,0 UV-I 0 W/m 0,0 km/h (0 Bft)
15.10.2013 18:38 10,5 C 8,9 C 92 % 1006,8 hPa 0,0 l/m 0 min 0 min 0,0 UV-I 0 W/m 10,3 km/h (2 Bft)
15.10.2013 18:40 10,4 C 8,3 C 92 % 1006,9 hPa 0,0 l/m 0 min 0 min 0,0 UV-I 0 W/m 2,6 km/h (1 Bft)
15.10.2013 18:42 10,4 C 8,3 C 92 % 1006,9 hPa 0,0 l/m 0 min 0 min 0,0 UV-I 0 W/m 0,0 km/h (0 Bft)
15.10.2013 18:44 10,4 C 8,3 C 92 % 1006,9 hPa 0,0 l/m 0 min 0 min 0,0 UV-I 0 W/m 2,6 km/h (1 Bft)
15.10.2013 18:46 10,4 C 8,3 C 92 % 1006,9 hPa 0,0 l/m 0 min 0 min 0,0 UV-I 0 W/m 5,1 km/h (1 Bft)
15.10.2013 18:48 10,4 C 8,3 C 91 % 1006,9 hPa 0,0 l/m 0 min 0 min 0,0 UV-I 0 W/m 2,6 km/h (1 Bft)
15.10.2013 18:50 10,4 C 8,3 C 91 % 1006,9 hPa 0,0 l/m 0 min 0 min 0,0 UV-I 0 W/m 0,0 km/h (0 Bft)
15.10.2013 18:52 10,4 C 8,3 C 91 % 1006,9 hPa 0,0 l/m 0 min 0 min 0,0 UV-I 0 W/m 7,7 km/h (2 Bft)
15.10.2013 18:54 10,4 C 8,3 C 91 % 1006,9 hPa 0,0 l/m 0 min 0 min 0,0 UV-I 0 W/m 7,7 km/h (2 Bft)
15.10.2013 18:56 10,4 C 8,3 C 91 % 1006,9 hPa 0,0 l/m 0 min 0 min 0,0 UV-I 0 W/m 2,6 km/h (1 Bft)
15.10.2013 18:58 10,4 C 8,3 C 91 % 1007,0 hPa 0,0 l/m 0 min 0 min 0,0 UV-I 0 W/m 0,0 km/h (0 Bft)
15.10.2013 19:00 10,3 C 8,3 C 91 % 1007,0 hPa 0,0 l/m 0 min 0 min 0,0 UV-I 0 W/m 7,7 km/h (2 Bft)
15.10.2013 19:02 10,3 C 8,3 C 91 % 1007,0 hPa 0,0 l/m 0 min 0 min 0,0 UV-I 0 W/m 7,7 km/h (2 Bft)
15.10.2013 19:06 10,3 C 8,3 C 91 % 1007,0 hPa 0,0 l/m 0 min 0 min 0,0 UV-I 0 W/m 0,0 km/h (0 Bft)
15.10.2013 19:08 10,3 C 8,3 C 91 % 1007,0 hPa 0,0 l/m 0 min 0 min 0,0 UV-I 0 W/m 0,0 km/h (0 Bft)
15.10.2013 19:10 10,3 C 8,3 C 91 % 1006,9 hPa 0,0 l/m 0 min 0 min 0,0 UV-I 0 W/m 5,1 km/h (1 Bft)
15.10.2013 19:12 10,3 C 8,3 C 91 % 1007,0 hPa 0,0 l/m 0 min 0 min 0,0 UV-I 0 W/m 0,0 km/h (0 Bft)
15.10.2013 19:14 10,3 C 8,3 C 91 % 1007,0 hPa 0,0 l/m 0 min 0 min 0,0 UV-I 0 W/m 0,0 km/h (0 Bft)
15.10.2013 19:16 10,2 C 8,3 C 91 % 1007,0 hPa 0,0 l/m 0 min 0 min 0,0 UV-I 0 W/m 0,0 km/h (0 Bft)
15.10.2013 19:18 10,2 C 8,3 C 91 % 1007,0 hPa 0,0 l/m 0 min 0 min 0,0 UV-I 0 W/m 2,6 km/h (1 Bft)
15.10.2013 19:20 10,2 C 8,3 C 92 % 1007,0 hPa 0,0 l/m 0 min 0 min 0,0 UV-I 0 W/m 5,1 km/h (1 Bft)
15.10.2013 19:22 10,2 C 8,3 C 95 % 1007,1 hPa 0,0 l/m 0 min 0 min 0,0 UV-I 0 W/m 2,6 km/h (1 Bft)
15.10.2013 19:24 10,2 C 8,3 C 95 % 1007,1 hPa 0,0 l/m 0 min 0 min 0,0 UV-I 0 W/m 0,0 km/h (0 Bft)
15.10.2013 19:26 10,2 C 8,3 C 92 % 1007,1 hPa 0,0 l/m 0 min 0 min 0,0 UV-I 0 W/m 0,0 km/h (0 Bft)
15.10.2013 19:28 10,1 C 8,3 C 92 % 1007,1 hPa 0,0 l/m 0 min 0 min 0,0 UV-I 0 W/m 10,3 km/h (2 Bft)
15.10.2013 19:30 10,1 C 8,3 C 92 % 1007,1 hPa 0,0 l/m 0 min 0 min 0,0 UV-I 0 W/m 2,6 km/h (1 Bft)
15.10.2013 19:32 10,1 C 8,3 C 92 % 1007,0 hPa 0,0 l/m 0 min 0 min 0,0 UV-I 0 W/m 0,0 km/h (0 Bft)
15.10.2013 19:34 10,1 C 8,3 C 92 % 1007,0 hPa 0,0 l/m 0 min 0 min 0,0 UV-I 0 W/m 0,0 km/h (0 Bft)
15.10.2013 19:36 10,1 C 8,3 C 92 % 1007,1 hPa 0,0 l/m 0 min 0 min 0,0 UV-I 0 W/m 0,0 km/h (0 Bft)
15.10.2013 19:38 10,1 C 8,3 C 92 % 1007,1 hPa 0,0 l/m 0 min 0 min 0,0 UV-I 0 W/m 0,0 km/h (0 Bft)
15.10.2013 19:40 10,1 C 8,3 C 92 % 1007,1 hPa 0,0 l/m 0 min 0 min 0,0 UV-I 0 W/m 0,0 km/h (0 Bft)
15.10.2013 19:42 10,1 C 8,3 C 92 % 1007,1 hPa 0,0 l/m 0 min 0 min 0,0 UV-I 0 W/m 0,0 km/h (0 Bft)
15.10.2013 19:44 10,1 C 8,3 C 92 % 1007,1 hPa 0,0 l/m 0 min 0 min 0,0 UV-I 0 W/m 0,0 km/h (0 Bft)
15.10.2013 19:46 10,1 C 8,3 C 92 % 1007,2 hPa 0,0 l/m 0 min 0 min 0,0 UV-I 0 W/m 0,0 km/h (0 Bft)
15.10.2013 19:48 10,0 C 8,3 C 92 % 1007,1 hPa 0,0 l/m 0 min 0 min 0,0 UV-I 0 W/m 0,0 km/h (0 Bft)
15.10.2013 19:50 10,0 C 8,3 C 92 % 1007,1 hPa 0,0 l/m 0 min 0 min 0,0 UV-I 0 W/m 0,0 km/h (0 Bft)
15.10.2013 19:52 9,9 C 8,3 C 92 % 1007,1 hPa 0,0 l/m 0 min 0 min 0,0 UV-I 0 W/m 0,0 km/h (0 Bft)
15.10.2013 19:54 9,9 C 8,3 C 92 % 1007,1 hPa 0,0 l/m 0 min 0 min 0,0 UV-I 0 W/m 0,0 km/h (0 Bft)
15.10.2013 19:56 9,9 C 8,3 C 92 % 1007,1 hPa 0,0 l/m 0 min 0 min 0,0 UV-I 0 W/m 0,0 km/h (0 Bft)
15.10.2013 19:58 9,9 C 8,3 C 92 % 1007,1 hPa 0,0 l/m 0 min 0 min 0,0 UV-I 0 W/m 0,0 km/h (0 Bft)
15.10.2013 20:00 9,9 C 8,3 C 92 % 1007,1 hPa 0,0 l/m 0 min 0 min 0,0 UV-I 0 W/m 0,0 km/h (0 Bft)
15.10.2013 20:02 9,8 C 8,3 C 92 % 1007,2 hPa 0,0 l/m 0 min 0 min 0,0 UV-I 0 W/m 0,0 km/h (0 Bft)
15.10.2013 20:06 9,8 C 8,3 C 92 % 1007,2 hPa 0,0 l/m 0 min 0 min 0,0 UV-I 0 W/m 0,0 km/h (0 Bft)
15.10.2013 20:08 9,8 C 8,3 C 92 % 1007,2 hPa 0,0 l/m 0 min 0 min 0,0 UV-I 0 W/m 0,0 km/h (0 Bft)
15.10.2013 20:10 9,8 C 8,3 C 92 % 1007,2 hPa 0,0 l/m 0 min 0 min 0,0 UV-I 0 W/m 0,0 km/h (0 Bft)
15.10.2013 20:12 9,8 C 8,3 C 92 % 1007,2 hPa 0,0 l/m 0 min 2 min 0,0 UV-I 0 W/m 0,0 km/h (0 Bft)
15.10.2013 20:14 9,8 C 8,3 C 92 % 1007,2 hPa 0,0 l/m 0 min 2 min 0,0 UV-I 0 W/m 0,0 km/h (0 Bft)
15.10.2013 20:16 9,8 C 8,3 C 92 % 1007,1 hPa 0,0 l/m 0 min 2 min 0,0 UV-I 0 W/m 0,0 km/h (0 Bft)
15.10.2013 20:18 9,8 C 8,3 C 92 % 1007,1 hPa 0,0 l/m 0 min 2 min 0,0 UV-I 0 W/m 0,0 km/h (0 Bft)
15.10.2013 20:20 9,8 C 8,3 C 93 % 1007,1 hPa 0,0 l/m 0 min 2 min 0,0 UV-I 0 W/m 0,0 km/h (0 Bft)
15.10.2013 20:22 9,8 C 8,3 C 93 % 1007,1 hPa 0,2 l/m 0 min 2 min 0,0 UV-I 0 W/m 0,0 km/h (0 Bft)
15.10.2013 20:24 9,8 C 8,3 C 93 % 1007,0 hPa 0,0 l/m 0 min 2 min 0,0 UV-I 0 W/m 0,0 km/h (0 Bft)
15.10.2013 20:26 9,7 C 8,3 C 93 % 1007,1 hPa 0,0 l/m 0 min 2 min 0,0 UV-I 0 W/m 0,0 km/h (0 Bft)
15.10.2013 20:28 9,7 C 8,3 C 93 % 1007,1 hPa 0,0 l/m 0 min 2 min 0,0 UV-I 0 W/m 0,0 km/h (0 Bft)
15.10.2013 20:30 9,7 C 8,3 C 93 % 1007,1 hPa 0,0 l/m 0 min 2 min 0,0 UV-I 0 W/m 0,0 km/h (0 Bft)
15.10.2013 20:32 9,7 C 8,3 C 93 % 1007,1 hPa 0,0 l/m 0 min 0 min 0,0 UV-I 0 W/m 0,0 km/h (0 Bft)
15.10.2013 20:34 9,7 C 8,3 C 93 % 1007,1 hPa 0,0 l/m 0 min 0 min 0,0 UV-I 0 W/m 0,0 km/h (0 Bft)
15.10.2013 20:36 9,7 C 8,3 C 94 % 1007,1 hPa 0,0 l/m 0 min 2 min 0,0 UV-I 0 W/m 0,0 km/h (0 Bft)
15.10.2013 20:38 9,6 C 8,3 C 94 % 1007,1 hPa 0,0 l/m 0 min 0 min 0,0 UV-I 0 W/m 0,0 km/h (0 Bft)
15.10.2013 20:40 9,6 C 8,3 C 94 % 1007,1 hPa 0,0 l/m 0 min 2 min 0,0 UV-I 0 W/m 0,0 km/h (0 Bft)
15.10.2013 20:42 9,6 C 8,3 C 94 % 1007,2 hPa 0,2 l/m 0 min 2 min 0,0 UV-I 0 W/m 0,0 km/h (0 Bft)
15.10.2013 20:44 9,6 C 8,3 C 94 % 1007,2 hPa 0,2 l/m 0 min 2 min 0,0 UV-I 0 W/m 0,0 km/h (0 Bft)
15.10.2013 20:46 9,6 C 8,3 C 94 % 1007,3 hPa 0,2 l/m 0 min 2 min 0,0 UV-I 0 W/m 0,0 km/h (0 Bft)
15.10.2013 20:48 9,6 C 8,3 C 95 % 1007,3 hPa 0,2 l/m 0 min 2 min 0,0 UV-I 0 W/m 0,0 km/h (0 Bft)
15.10.2013 20:50 9,6 C 8,3 C 95 % 1007,2 hPa 0,2 l/m 0 min 2 min 0,0 UV-I 0 W/m 0,0 km/h (0 Bft)
15.10.2013 20:52 9,6 C 8,3 C 95 % 1007,3 hPa 0,4 l/m 0 min 2 min 0,0 UV-I 0 W/m 0,0 km/h (0 Bft)
15.10.2013 20:54 9,6 C 8,3 C 95 % 1007,3 hPa 0,2 l/m 0 min 2 min 0,0 UV-I 0 W/m 0,0 km/h (0 Bft)
15.10.2013 20:56 9,6 C 8,3 C 95 % 1007,3 hPa 0,2 l/m 0 min 2 min 0,0 UV-I 0 W/m 0,0 km/h (0 Bft)
15.10.2013 20:58 9,6 C 8,3 C 95 % 1007,4 hPa 0,0 l/m 0 min 2 min 0,0 UV-I 0 W/m 0,0 km/h (0 Bft)
15.10.2013 21:00 9,5 C 8,3 C 95 % 1007,5 hPa 0,2 l/m 0 min 2 min 0,0 UV-I 0 W/m 0,0 km/h (0 Bft)
15.10.2013 21:02 9,4 C 8,3 C 95 % 1007,6 hPa 0,0 l/m 0 min 2 min 0,0 UV-I 0 W/m 0,0 km/h (0 Bft)
15.10.2013 21:06 9,4 C 8,3 C 96 % 1007,6 hPa 0,2 l/m 0 min 2 min 0,0 UV-I 0 W/m 0,0 km/h (0 Bft)
15.10.2013 21:08 9,4 C 8,3 C 96 % 1007,6 hPa 0,2 l/m 0 min 2 min 0,0 UV-I 0 W/m 0,0 km/h (0 Bft)
15.10.2013 21:10 9,4 C 8,3 C 96 % 1007,5 hPa 0,2 l/m 0 min 2 min 0,0 UV-I 0 W/m 0,0 km/h (0 Bft)
15.10.2013 21:12 9,4 C 8,3 C 96 % 1007,5 hPa 0,2 l/m 0 min 2 min 0,0 UV-I 0 W/m 0,0 km/h (0 Bft)
15.10.2013 21:14 9,4 C 8,3 C 96 % 1007,4 hPa 0,4 l/m 0 min 2 min 0,0 UV-I 0 W/m 0,0 km/h (0 Bft)
15.10.2013 21:16 9,4 C 8,3 C 96 % 1007,4 hPa 0,2 l/m 0 min 2 min 0,0 UV-I 0 W/m 0,0 km/h (0 Bft)
15.10.2013 21:18 9,3 C 8,3 C 96 % 1007,3 hPa 0,4 l/m 0 min 2 min 0,0 UV-I 0 W/m 0,0 km/h (0 Bft)
15.10.2013 21:20 9,3 C 8,3 C 96 % 1007,4 hPa 0,2 l/m 0 min 2 min 0,0 UV-I 0 W/m 2,6 km/h (1 Bft)
15.10.2013 21:22 9,3 C 8,3 C 96 % 1007,5 hPa 0,2 l/m 0 min 2 min 0,0 UV-I 0 W/m 0,0 km/h (0 Bft)
15.10.2013 21:24 9,3 C 8,3 C 96 % 1007,5 hPa 0,0 l/m 0 min 2 min 0,0 UV-I 0 W/m 0,0 km/h (0 Bft)
15.10.2013 21:26 9,3 C 8,3 C 96 % 1007,5 hPa 0,2 l/m 0 min 2 min 0,0 UV-I 0 W/m 0,0 km/h (0 Bft)
15.10.2013 21:28 9,2 C 7,8 C 96 % 1007,5 hPa 0,2 l/m 0 min 2 min 0,0 UV-I 0 W/m 0,0 km/h (0 Bft)
15.10.2013 21:30 9,3 C 7,8 C 96 % 1007,5 hPa 0,2 l/m 0 min 2 min 0,0 UV-I 0 W/m 0,0 km/h (0 Bft)
15.10.2013 21:32 9,2 C 7,8 C 97 % 1007,4 hPa 0,0 l/m 0 min 2 min 0,0 UV-I 0 W/m 0,0 km/h (0 Bft)
15.10.2013 21:34 9,2 C 8,3 C 97 % 1007,3 hPa 0,2 l/m 0 min 2 min 0,0 UV-I 0 W/m 0,0 km/h (0 Bft)
15.10.2013 21:36 9,2 C 8,3 C 96 % 1007,3 hPa 0,0 l/m 0 min 2 min 0,0 UV-I 0 W/m 0,0 km/h (0 Bft)
15.10.2013 21:38 9,2 C 8,3 C 97 % 1007,3 hPa 0,2 l/m 0 min 2 min 0,0 UV-I 0 W/m 0,0 km/h (0 Bft)
15.10.2013 21:40 9,2 C 8,3 C 97 % 1007,3 hPa 0,0 l/m 0 min 2 min 0,0 UV-I 0 W/m 0,0 km/h (0 Bft)
15.10.2013 21:42 9,2 C 8,3 C 97 % 1007,3 hPa 0,2 l/m 0 min 2 min 0,0 UV-I 0 W/m 5,1 km/h (1 Bft)
15.10.2013 21:44 9,2 C 8,3 C 97 % 1007,3 hPa 0,0 l/m 0 min 2 min 0,0 UV-I 0 W/m 0,0 km/h (0 Bft)
15.10.2013 21:46 9,2 C 8,3 C 97 % 1007,3 hPa 0,2 l/m 0 min 2 min 0,0 UV-I 0 W/m 0,0 km/h (0 Bft)
15.10.2013 21:48 9,2 C 8,3 C 97 % 1007,4 hPa 0,0 l/m 0 min 2 min 0,0 UV-I 0 W/m 0,0 km/h (0 Bft)
15.10.2013 21:50 9,2 C 7,8 C 97 % 1007,3 hPa 0,2 l/m 0 min 2 min 0,0 UV-I 0 W/m 0,0 km/h (0 Bft)
15.10.2013 21:52 9,2 C 8,3 C 97 % 1007,4 hPa 0,0 l/m 0 min 2 min 0,0 UV-I 0 W/m 0,0 km/h (0 Bft)
15.10.2013 21:54 9,2 C 8,3 C 97 % 1007,4 hPa 0,0 l/m 0 min 2 min 0,0 UV-I 0 W/m 0,0 km/h (0 Bft)
15.10.2013 21:56 9,2 C 8,3 C 97 % 1007,3 hPa 0,2 l/m 0 min 2 min 0,0 UV-I 0 W/m 0,0 km/h (0 Bft)
15.10.2013 21:58 9,2 C 7,8 C 97 % 1007,4 hPa 0,0 l/m 0 min 2 min 0,0 UV-I 0 W/m 0,0 km/h (0 Bft)
15.10.2013 22:00 9,2 C 7,8 C 97 % 1007,5 hPa 0,0 l/m 0 min 2 min 0,0 UV-I 0 W/m 0,0 km/h (0 Bft)
15.10.2013 22:02 9,2 C 8,3 C 97 % 1007,5 hPa 0,0 l/m 0 min 2 min 0,0 UV-I 0 W/m 0,0 km/h (0 Bft)
15.10.2013 22:06 9,1 C 8,3 C 97 % 1007,5 hPa 0,0 l/m 0 min 0 min 0,0 UV-I 0 W/m 0,0 km/h (0 Bft)
15.10.2013 22:08 9,1 C 8,3 C 97 % 1007,5 hPa 0,0 l/m 0 min 0 min 0,0 UV-I 0 W/m 0,0 km/h (0 Bft)
15.10.2013 22:10 9,1 C 8,3 C 97 % 1007,5 hPa 0,0 l/m 0 min 0 min 0,0 UV-I 0 W/m 0,0 km/h (0 Bft)
15.10.2013 22:12 9,1 C 8,3 C 97 % 1007,6 hPa 0,0 l/m 0 min 0 min 0,0 UV-I 0 W/m 0,0 km/h (0 Bft)
15.10.2013 22:14 9,1 C 8,3 C 97 % 1007,6 hPa 0,0 l/m 0 min 2 min 0,0 UV-I 0 W/m 2,6 km/h (1 Bft)
15.10.2013 22:16 9,1 C 7,8 C 97 % 1007,6 hPa 0,0 l/m 0 min 2 min 0,0 UV-I 0 W/m 0,0 km/h (0 Bft)
15.10.2013 22:18 9,1 C 7,8 C 97 % 1007,6 hPa 0,0 l/m 0 min 2 min 0,0 UV-I 0 W/m 0,0 km/h (0 Bft)
15.10.2013 22:20 9,1 C 7,8 C 98 % 1007,7 hPa 0,0 l/m 0 min 2 min 0,0 UV-I 0 W/m 0,0 km/h (0 Bft)
15.10.2013 22:22 9,1 C 8,3 C 98 % 1007,7 hPa 0,0 l/m 0 min 2 min 0,0 UV-I 0 W/m 0,0 km/h (0 Bft)
15.10.2013 22:24 9,2 C 8,3 C 98 % 1007,7 hPa 0,0 l/m 0 min 2 min 0,0 UV-I 0 W/m 0,0 km/h (0 Bft)
15.10.2013 22:26 9,2 C 8,3 C 98 % 1007,7 hPa 0,0 l/m 0 min 2 min 0,0 UV-I 0 W/m 0,0 km/h (0 Bft)
15.10.2013 22:28 9,2 C 8,3 C 98 % 1007,7 hPa 0,0 l/m 0 min 0 min 0,0 UV-I 0 W/m 0,0 km/h (0 Bft)
15.10.2013 22:30 9,2 C 8,3 C 98 % 1007,7 hPa 0,0 l/m 0 min 0 min 0,0 UV-I 0 W/m 0,0 km/h (0 Bft)
15.10.2013 22:32 9,2 C 8,3 C 98 % 1007,8 hPa 0,0 l/m 0 min 0 min 0,0 UV-I 0 W/m 0,0 km/h (0 Bft)
15.10.2013 22:34 9,2 C 8,3 C 98 % 1007,7 hPa 0,0 l/m 0 min 2 min 0,0 UV-I 0 W/m 0,0 km/h (0 Bft)
15.10.2013 22:36 9,2 C 8,3 C 98 % 1007,8 hPa 0,0 l/m 0 min 0 min 0,0 UV-I 0 W/m 0,0 km/h (0 Bft)
15.10.2013 22:38 9,2 C 8,3 C 98 % 1007,8 hPa 0,0 l/m 0 min 2 min 0,0 UV-I 0 W/m 0,0 km/h (0 Bft)
15.10.2013 22:40 9,2 C 8,3 C 98 % 1007,9 hPa 0,0 l/m 0 min 2 min 0,0 UV-I 0 W/m 0,0 km/h (0 Bft)
15.10.2013 22:42 9,2 C 8,3 C 98 % 1007,9 hPa 0,0 l/m 0 min 2 min 0,0 UV-I 0 W/m 0,0 km/h (0 Bft)
15.10.2013 22:44 9,2 C 8,3 C 98 % 1007,9 hPa 0,0 l/m 0 min 0 min 0,0 UV-I 0 W/m 0,0 km/h (0 Bft)
15.10.2013 22:46 9,2 C 8,3 C 98 % 1008,0 hPa 0,0 l/m 0 min 2 min 0,0 UV-I 0 W/m 0,0 km/h (0 Bft)
15.10.2013 22:48 9,2 C 8,3 C 98 % 1008,0 hPa 0,2 l/m 0 min 0 min 0,0 UV-I 0 W/m 0,0 km/h (0 Bft)
15.10.2013 22:50 9,2 C 8,3 C 98 % 1008,0 hPa 0,0 l/m 0 min 0 min 0,0 UV-I 0 W/m 0,0 km/h (0 Bft)
15.10.2013 22:52 9,2 C 8,3 C 98 % 1008,0 hPa 0,0 l/m 0 min 0 min 0,0 UV-I 0 W/m 0,0 km/h (0 Bft)
15.10.2013 22:54 9,2 C 8,3 C 98 % 1008,0 hPa 0,0 l/m 0 min 0 min 0,0 UV-I 0 W/m 0,0 km/h (0 Bft)
15.10.2013 22:56 9,2 C 8,3 C 98 % 1008,0 hPa 0,0 l/m 0 min 0 min 0,0 UV-I 0 W/m 0,0 km/h (0 Bft)
15.10.2013 22:58 9,2 C 8,3 C 98 % 1007,9 hPa 0,0 l/m 0 min 0 min 0,0 UV-I 0 W/m 0,0 km/h (0 Bft)
15.10.2013 23:00 9,2 C 8,3 C 98 % 1008,0 hPa 0,0 l/m 0 min 0 min 0,0 UV-I 0 W/m 0,0 km/h (0 Bft)
15.10.2013 23:02 9,2 C 8,3 C 98 % 1008,0 hPa 0,0 l/m 0 min 0 min 0,0 UV-I 0 W/m 0,0 km/h (0 Bft)
15.10.2013 23:06 9,2 C 8,3 C 98 % 1008,0 hPa 0,0 l/m 0 min 0 min 0,0 UV-I 0 W/m 0,0 km/h (0 Bft)
15.10.2013 23:08 9,2 C 8,3 C 98 % 1007,9 hPa 0,0 l/m 0 min 0 min 0,0 UV-I 0 W/m 0,0 km/h (0 Bft)
15.10.2013 23:10 9,2 C 7,8 C 98 % 1007,9 hPa 0,0 l/m 0 min 0 min 0,0 UV-I 0 W/m 0,0 km/h (0 Bft)
15.10.2013 23:12 9,2 C 7,8 C 98 % 1007,9 hPa 0,0 l/m 0 min 0 min 0,0 UV-I 0 W/m 0,0 km/h (0 Bft)
15.10.2013 23:14 9,1 C 7,8 C 98 % 1008,0 hPa 0,0 l/m 0 min 0 min 0,0 UV-I 0 W/m 0,0 km/h (0 Bft)
15.10.2013 23:16 9,1 C 7,8 C 98 % 1008,0 hPa 0,0 l/m 0 min 0 min 0,0 UV-I 0 W/m 0,0 km/h (0 Bft)
15.10.2013 23:18 9,0 C 7,8 C 98 % 1008,1 hPa 0,0 l/m 0 min 0 min 0,0 UV-I 0 W/m 0,0 km/h (0 Bft)
15.10.2013 23:20 9,0 C 7,8 C 98 % 1008,1 hPa 0,0 l/m 0 min 0 min 0,0 UV-I 0 W/m 0,0 km/h (0 Bft)
15.10.2013 23:22 8,9 C 7,8 C 98 % 1008,2 hPa 0,0 l/m 0 min 0 min 0,0 UV-I 0 W/m 0,0 km/h (0 Bft)
15.10.2013 23:24 8,9 C 7,8 C 98 % 1008,2 hPa 0,0 l/m 0 min 0 min 0,0 UV-I 0 W/m 0,0 km/h (0 Bft)
15.10.2013 23:26 8,9 C 7,8 C 98 % 1008,3 hPa 0,0 l/m 0 min 0 min 0,0 UV-I 0 W/m 0,0 km/h (0 Bft)
15.10.2013 23:28 8,9 C 7,8 C 98 % 1008,3 hPa 0,0 l/m 0 min 0 min 0,0 UV-I 0 W/m 0,0 km/h (0 Bft)
15.10.2013 23:30 8,9 C 7,8 C 98 % 1008,2 hPa 0,0 l/m 0 min 0 min 0,0 UV-I 0 W/m 0,0 km/h (0 Bft)
15.10.2013 23:32 9,0 C 7,8 C 98 % 1008,3 hPa 0,0 l/m 0 min 0 min 0,0 UV-I 0 W/m 0,0 km/h (0 Bft)
15.10.2013 23:34 9,0 C 7,8 C 98 % 1008,3 hPa 0,0 l/m 0 min 0 min 0,0 UV-I 0 W/m 0,0 km/h (0 Bft)
15.10.2013 23:36 9,0 C 7,8 C 98 % 1008,4 hPa 0,0 l/m 0 min 0 min 0,0 UV-I 0 W/m 0,0 km/h (0 Bft)
15.10.2013 23:38 9,0 C 7,8 C 98 % 1008,4 hPa 0,0 l/m 0 min 0 min 0,0 UV-I 0 W/m 0,0 km/h (0 Bft)
15.10.2013 23:40 9,1 C 7,8 C 98 % 1008,4 hPa 0,0 l/m 0 min 0 min 0,0 UV-I 0 W/m 0,0 km/h (0 Bft)
15.10.2013 23:42 9,1 C 7,8 C 98 % 1008,5 hPa 0,0 l/m 0 min 0 min 0,0 UV-I 0 W/m 0,0 km/h (0 Bft)
15.10.2013 23:44 9,1 C 7,8 C 98 % 1008,5 hPa 0,0 l/m 0 min 0 min 0,0 UV-I 0 W/m 0,0 km/h (0 Bft)
15.10.2013 23:46 9,1 C 7,8 C 98 % 1008,6 hPa 0,0 l/m 0 min 0 min 0,0 UV-I 0 W/m 0,0 km/h (0 Bft)
15.10.2013 23:48 9,1 C 7,8 C 98 % 1008,5 hPa 0,0 l/m 0 min 0 min 0,0 UV-I 0 W/m 0,0 km/h (0 Bft)
15.10.2013 23:50 9,0 C 7,8 C 98 % 1008,5 hPa 0,0 l/m 0 min 0 min 0,0 UV-I 0 W/m 0,0 km/h (0 Bft)
15.10.2013 23:52 9,0 C 7,8 C 98 % 1008,6 hPa 0,0 l/m 0 min 0 min 0,0 UV-I 0 W/m 0,0 km/h (0 Bft)
15.10.2013 23:54 9,0 C 7,8 C 98 % 1008,6 hPa 0,0 l/m 0 min 0 min 0,0 UV-I 0 W/m 0,0 km/h (0 Bft)
15.10.2013 23:56 9,0 C 7,8 C 98 % 1008,7 hPa 0,0 l/m 0 min 0 min 0,0 UV-I 0 W/m 0,0 km/h (0 Bft)
15.10.2013 23:58 9,0 C 7,8 C 98 % 1008,7 hPa 0,0 l/m 0 min 0 min 0,0 UV-I 0 W/m 0,0 km/h (0 Bft)
_ Min-Zeit 06:08 03:28 18:00 18:06 - - - - - 00:24
Minimum _ 8,8 C 7,2 C 90 % 1006,6 hPa - - - - - 0,0 km/h (0 Bft)
_ Max-Zeit 00:00 00:00 22:20 00:00 10:50 16:38 00:12 00:00 16:40 00:16
Maximum _ 11,3 C 10,0 C 98 % 1008,9 hPa 1,0 l/m 2 min 2 min 0,0 UV-I 281 W/m 18,0 km/h
S-SO (3 Bft)
Durchschnitt _ 9,8 C 8,5 C 95 % 1007,6 hPa #12,0 l/m #22 min. #6:42 h 0,0 UV-I 71 W/m 3,5 km/h (1 Bft)
© 2013 W. Hausmann